GEFSSGP_500_meanwind_114.txt.gz
Wind_Speed
21 19 19 17 16 15 15 16 17 16 15 13 10 7 6 6 7 7 6 6 6 6 6 6 7 7 8 8 8 9 9 9 9 8 8 8 7 7 7 6 7 8 8 9 9 9 9 9 8
22 21 20 19 17 16 17 18 19 19 17 14 11 10 7 8 8 8 8 8 7 7 7 7 9 9 10 10 10 10 10 10 10 10 9 10 9 9 8 8 8 8 8 8 8 9 9 9 8
23 22 21 19 18 18 19 20 21 20 18 16 13 10 9 9 8 9 9 9 9 9 9 9 10 11 12 12 12 11 11 11 11 11 10 10 10 10 9 9 9 9 8 8 8 8 8 8 8
24 23 22 20 18 20 21 22 22 21 20 17 15 12 10 9 10 10 11 11 11 11 11 11 12 12 13 13 13 12 12 12 13 12 12 12 12 12 12 11 10 10 10 9 9 9 9 9 8
24 23 22 20 20 22 24 25 23 22 21 19 16 14 12 11 11 12 13 12 12 12 12 11 11 11 11 13 14 14 13 13 14 14 14 14 14 14 14 13 12 12 12 11 10 10 9 9 9
23 22 21 20 22 25 26 25 24 24 22 20 17 16 14 12 13 14 14 15 14 13 12 11 11 12 11 12 12 13 13 14 15 15 15 16 16 15 15 15 14 14 13 12 11 11 11 10 10
21 21 20 22 25 27 27 26 25 24 22 21 19 16 15 14 15 16 16 17 16 15 13 12 11 11 12 12 13 14 14 14 15 16 16 16 16 17 17 17 16 16 15 13 12 12 12 11 11
20 20 21 23 26 28 28 28 27 25 23 22 20 18 16 16 17 17 18 18 18 17 15 13 11 12 13 13 14 15 15 15 16 17 17 17 17 17 18 18 18 17 16 15 14 13 13 13 12
19 20 21 24 27 29 29 29 27 27 25 23 21 19 18 17 18 19 19 19 19 17 17 16 14 13 13 14 15 15 17 17 17 17 17 18 18 18 18 19 18 18 18 17 16 15 15 14 14
18 19 22 25 27 29 29 29 28 27 26 24 22 20 19 18 19 20 21 21 20 19 18 18 16 16 16 15 16 16 17 17 18 18 18 19 18 19 19 19 19 19 18 18 18 17 16 16 16
18 20 23 25 27 29 29 29 28 28 27 25 23 22 21 20 20 21 22 23 22 21 20 19 18 18 18 17 17 18 18 19 20 21 20 20 20 19 20 20 20 20 19 20 19 19 18 17 17
18 21 23 25 26 28 28 28 28 28 27 25 24 23 22 22 22 22 23 24 24 24 23 20 19 20 19 19 19 19 19 20 21 21 21 21 20 20 21 21 21 21 21 22 21 20 20 19 19
17 20 21 23 24 26 26 27 27 27 27 26 25 24 23 24 23 23 24 25 25 24 23 22 22 21 21 21 21 20 21 22 22 23 23 21 20 20 21 21 22 21 22 23 23 22 21 21 20
16 18 20 21 23 24 25 25 25 25 25 25 24 23 22 22 22 22 23 23 24 23 23 22 22 21 21 22 22 23 23 23 24 24 25 24 23 22 22 23 23 23 23 23 24 23 23 23 22
15 17 19 20 21 22 23 23 23 24 24 24 23 22 22 21 21 22 22 23 23 24 23 23 22 22 22 23 23 24 24 25 25 26 26 25 24 24 23 24 24 24 23 23 23 25 25 23 23
15 16 18 20 20 21 21 21 22 22 22 22 22 22 21 21 22 23 23 23 24 24 24 23 23 23 23 24 23 24 25 26 27 27 26 26 25 25 25 25 25 25 24 25 24 24 23 23 24
16 16 18 19 20 20 19 20 21 21 21 21 21 21 21 21 22 22 22 23 24 24 24 24 23 24 24 24 23 25 27 26 27 27 27 27 27 27 27 27 26 26 26 25 26 26 25 25 24
16 17 17 18 19 19 18 18 19 19 19 19 20 20 20 20 20 21 22 24 24 25 26 25 24 25 25 24 24 25 25 25 26 27 27 27 27 29 29 28 28 28 27 27 27 27 27 26 26
17 17 18 18 19 18 18 18 18 18 17 17 18 18 18 19 19 21 22 24 25 25 25 24 24 24 25 25 24 24 25 26 26 27 27 27 27 28 28 28 27 27 28 28 28 27 26 26 27
17 17 17 18 19 18 18 18 18 18 18 18 18 18 18 19 20 21 22 22 23 23 24 24 24 24 24 25 25 25 26 26 27 28 29 29 29 29 29 29 28 28 28 28 28 28 27 26 27
16 16 17 18 19 18 18 18 18 19 19 19 19 20 20 21 22 23 23 23 24 24 24 24 24 24 25 25 25 25 26 27 28 28 28 30 30 29 28 28 28 28 27 27 27 28 27 27 27
15 16 17 18 18 17 18 19 18 18 19 20 21 21 20 21 23 24 24 24 25 25 26 26 26 24 24 25 25 26 26 26 27 28 28 30 30 30 29 28 29 29 28 27 28 29 28 28 28
16 16 16 17 17 18 18 19 18 19 20 20 21 22 22 22 23 23 24 24 25 25 25 25 25 25 25 25 25 26 27 27 27 28 28 29 29 29 29 30 30 28 28 29 29 28 27 28 29
15 16 16 16 17 17 18 19 19 20 21 21 22 23 23 23 23 24 24 24 24 24 23 23 23 24 25 25 25 26 26 26 26 26 26 27 28 27 27 28 28 28 28 28 28 27 27 28 28
15 15 15 16 17 17 18 18 19 20 21 21 22 22 23 23 23 24 23 24 23 23 23 23 23 23 24 25 24 25 25 25 24 24 24 24 25 26 26 27 28 27 27 27 28 28 27 28 28
14 15 15 16 17 17 17 17 17 18 19 20 20 21 22 22 23 23 24 24 23 23 22 23 23 23 24 25 25 25 25 24 24 24 24 24 25 25 26 26 27 28 28 28 28 28 28 28 29
15 16 16 16 16 16 16 15 16 17 17 18 18 20 21 21 21 22 22 23 23 23 23 24 24 25 25 26 26 26 26 25 25 25 25 25 25 26 27 26 27 28 27 28 27 27 28 28 28
16 16 16 16 17 16 15 15 15 15 15 16 18 19 20 20 20 21 21 22 23 23 23 23 23 24 25 26 27 27 27 27 26 25 25 26 26 26 26 26 27 27 27 27 27 27 28 28 29
16 16 16 16 17 17 16 15 15 15 16 17 18 19 19 20 21 21 21 22 22 22 22 23 24 24 25 26 27 27 28 27 26 26 26 26 25 25 26 26 27 27 27 27 27 28 28 29 29
15 16 15 16 16 17 17 15 15 16 18 19 18 18 19 20 21 21 21 21 21 22 22 23 24 24 25 25 26 26 26 27 27 26 26 26 25 25 26 26 27 27 28 28 28 28 27 27 27

GEFSSGP_500_meanwind_120.txt.gz
Wind_Speed
18 18 17 16 16 15 16 18 17 16 14 12 11 10 9 8 7 6 5 4 4 5 6 6 7 7 7 8 9 10 10 10 10 9 9 8 7 7 6 4 3 2 2 2 1 1 1 2 2
19 18 18 17 16 15 17 20 19 18 15 13 12 11 10 8 8 7 5 5 4 4 5 6 7 8 8 9 10 10 11 11 11 10 9 9 9 8 8 6 5 4 4 3 3 3 2 2 2
19 19 18 18 17 17 20 22 21 19 16 14 13 12 11 10 8 7 6 5 5 5 5 5 6 7 8 9 10 11 11 12 11 11 11 11 10 9 9 8 7 6 6 5 5 4 4 3 3
19 19 19 18 18 21 23 23 22 20 18 16 14 13 12 10 10 9 8 7 6 6 5 6 6 7 9 9 11 12 12 12 13 13 13 12 12 11 10 10 9 8 8 7 7 6 6 5 5
19 19 19 19 20 22 24 24 23 20 18 17 15 15 13 12 11 10 8 7 7 7 7 7 7 8 9 10 11 12 12 13 13 14 13 13 13 13 12 12 11 10 10 9 9 8 8 7 7
19 19 18 19 21 23 24 24 23 21 19 18 16 16 15 13 12 11 9 8 8 7 8 8 8 9 9 10 11 12 13 13 14 14 14 14 14 13 13 13 13 12 12 11 11 11 10 9 8
19 18 18 20 22 24 25 25 24 22 20 19 17 16 16 14 13 11 10 10 9 8 9 9 9 10 10 11 12 12 13 13 13 14 15 15 14 14 14 14 14 14 14 13 13 12 12 11 10
18 18 19 21 23 25 25 25 25 23 22 20 18 17 17 16 13 12 11 12 12 11 10 10 10 11 11 12 12 13 14 15 14 15 15 15 16 15 15 16 16 15 15 15 15 14 14 13 12
18 18 19 22 24 25 26 26 25 24 23 21 20 19 18 16 14 13 13 13 13 12 12 12 12 13 13 13 13 14 15 15 15 16 17 17 17 17 17 17 16 16 16 16 16 16 16 15 14
17 18 21 23 24 25 26 26 25 23 23 21 20 20 19 17 15 15 14 14 15 14 14 14 14 13 14 15 15 16 16 16 17 17 18 18 19 18 18 18 17 17 17 17 17 17 17 17 16
17 19 20 21 23 24 25 25 25 23 23 22 22 21 20 18 17 17 17 16 17 16 16 16 15 15 15 16 17 18 19 19 19 19 20 20 19 20 20 19 19 19 19 19 18 18 18 18 18
17 18 19 20 22 23 24 24 24 24 24 22 22 21 20 20 19 19 18 18 18 19 18 17 17 17 17 17 18 18 19 20 21 21 22 22 21 21 21 21 21 21 21 21 21 21 20 20 20
16 17 18 19 21 22 23 23 23 22 22 22 21 20 20 19 20 21 20 20 20 20 20 20 19 18 18 18 19 19 20 20 22 24 24 23 22 22 23 23 23 22 22 22 22 22 22 21 21
16 17 17 19 20 21 22 22 22 22 22 21 21 20 20 20 20 20 21 21 21 21 22 21 20 20 20 20 20 21 21 22 22 24 25 25 25 24 25 25 25 24 24 24 24 24 23 23 22
16 17 17 18 19 20 20 21 21 21 21 21 20 20 20 21 22 22 22 22 22 22 22 21 21 21 20 21 21 22 23 23 24 24 25 26 27 27 26 26 26 26 26 26 26 26 25 24 24
15 16 16 18 18 19 18 19 21 20 20 20 20 20 21 21 23 23 23 23 22 22 22 22 22 21 21 21 22 22 23 24 25 26 27 26 26 26 27 27 27 28 27 28 28 28 27 26 25
14 14 15 18 18 17 17 19 20 20 20 19 20 20 21 21 22 22 23 23 23 22 23 23 22 22 22 23 23 24 24 25 26 27 27 28 27 26 27 28 28 29 29 29 30 29 29 28 28
14 15 16 17 17 17 17 19 19 19 18 19 20 20 20 21 21 21 21 22 23 23 23 23 23 23 24 24 24 25 25 25 26 27 28 29 28 27 28 29 30 30 29 30 30 30 30 30 29
15 14 15 17 16 16 17 18 18 18 18 19 19 20 21 20 20 21 21 21 23 23 23 24 24 24 24 25 25 25 26 26 27 27 28 29 29 28 28 28 29 31 31 31 32 31 31 30 30
12 13 14 15 15 15 15 16 17 17 18 18 18 18 19 19 19 20 20 21 22 22 23 24 25 26 26 26 26 26 27 27 28 28 29 28 28 29 29 29 29 30 31 32 33 33 32 31 31
11 12 14 14 14 14 14 15 16 16 16 17 17 17 18 19 20 20 20 20 21 22 22 23 24 26 26 26 26 26 27 27 28 29 29 29 29 29 29 30 31 31 31 31 32 32 32 32 31
11 12 14 14 12 13 12 12 16 15 16 16 17 17 18 19 20 20 21 21 22 22 23 24 24 25 25 26 26 26 27 28 28 29 29 29 30 30 31 31 31 32 32 32 32 32 32 32 32
11 11 12 13 12 13 13 11 15 16 17 18 19 19 19 20 21 21 22 22 22 23 23 24 24 25 26 26 27 27 27 28 28 29 28 28 29 30 31 31 32 32 32 33 33 33 32 31 32
10 10 11 11 11 12 12 11 13 15 17 17 18 19 20 21 21 21 21 22 23 24 24 25 25 25 26 26 27 27 27 28 28 28 28 28 29 30 30 31 32 32 32 32 32 31 31 31 31
10 8 7 8 9 11 13 12 13 15 16 17 18 19 19 21 21 22 22 23 24 25 26 26 27 26 26 26 27 27 28 28 28 29 29 29 29 29 30 30 31 32 32 31 31 31 31 31 32
10 9 9 10 10 11 14 13 15 15 16 17 17 18 19 20 22 22 23 24 25 25 26 26 27 27 27 27 28 28 29 29 29 29 30 29 29 29 29 30 30 30 31 31 31 32 31 32 32
11 11 11 11 11 11 13 15 16 16 17 17 18 18 18 19 21 22 23 23 24 24 25 25 26 27 28 29 29 28 29 29 29 30 30 31 31 31 30 29 28 29 29 31 31 32 32 33 33
13 13 12 11 12 12 13 15 15 15 16 17 17 17 18 19 20 21 21 22 23 24 24 25 26 26 27 28 28 28 29 30 30 30 30 30 31 30 30 29 29 29 29 31 32 31 31 32 33
13 14 14 13 13 12 12 14 15 15 16 16 17 18 19 20 21 21 22 22 22 23 24 24 25 26 27 27 28 28 28 29 29 30 30 30 30 29 29 28 29 29 29 30 30 31 31 31 33
14 14 13 13 13 13 13 15 17 16 17 17 18 19 20 21 21 21 22 22 23 23 24 24 25 25 26 26 26 26 26 27 28 28 28 28 28 28 27 27 27 28 28 28 29 29 31 31 31

GEFSSGP_500_meanwind_126.txt.gz
Wind_Speed
14 13 13 12 11 8 6 6 10 16 18 19 16 16 16 16 15 14 13 12 11 11 11 11 11 10 10 10 10 10 10 11 11 11 11 11 11 11 11 10 9 8 7 6 5 5 4 3 3
14 14 14 12 11 7 3 7 14 19 20 19 16 16 17 17 17 16 15 13 13 12 12 11 12 12 12 12 12 12 12 12 12 12 12 12 12 12 12 12 11 10 9 8 7 6 6 5 4
15 15 14 13 10 6 6 13 17 20 20 18 15 16 19 17 17 16 14 14 14 13 13 12 12 12 12 13 13 13 13 13 13 13 13 13 13 14 14 14 12 12 11 10 9 8 7 6 6
15 15 14 13 10 7 11 16 19 17 17 17 16 18 19 19 18 16 15 15 15 14 14 13 13 13 13 13 13 13 14 14 15 15 14 14 15 15 15 15 14 13 12 11 10 10 9 8 8
15 14 13 11 9 11 17 19 19 15 16 17 17 20 20 19 19 18 16 15 15 14 14 13 13 13 14 14 14 14 14 15 16 16 16 15 15 15 16 16 15 15 14 13 13 11 10 10 10
14 13 12 9 8 15 18 21 20 17 17 17 18 21 21 19 18 17 17 16 15 15 14 13 13 14 14 14 14 14 15 15 16 16 16 17 17 17 17 17 16 16 15 15 14 13 13 12 12
13 12 10 7 9 15 19 20 18 18 18 18 20 22 22 20 18 17 16 16 15 14 14 13 13 13 13 14 14 14 15 15 16 16 17 17 17 18 18 17 17 17 16 16 15 15 15 14 13
13 13 11 10 13 17 20 21 19 18 20 19 20 22 23 18 17 16 16 16 15 15 14 13 13 12 13 14 15 16 16 16 16 17 18 18 18 18 18 18 18 18 17 17 17 17 17 16 16
12 12 10 9 13 17 20 20 19 19 21 21 22 23 21 17 16 16 16 17 17 16 15 13 13 14 14 14 15 16 17 18 18 18 19 19 19 19 19 19 19 19 19 19 19 18 18 18 17
11 10 8 12 15 17 18 18 18 18 21 23 24 24 21 18 18 17 17 17 17 17 16 14 14 14 15 15 17 17 18 19 19 20 20 20 21 21 21 20 20 21 20 20 20 20 19 19 19
12 10 13 20 21 20 17 17 19 17 19 22 23 22 22 18 18 19 19 17 17 17 15 14 15 15 15 17 18 18 19 20 20 21 21 22 22 22 22 22 22 22 22 22 22 21 21 21 20
14 15 19 21 23 21 18 17 18 18 18 19 19 21 20 18 19 19 20 19 17 16 16 14 16 16 16 18 19 19 19 20 20 21 22 23 23 23 22 22 23 22 22 23 23 23 23 22 21
14 16 19 19 20 19 19 19 19 18 22 20 19 21 19 18 19 20 20 19 19 18 15 15 16 16 17 19 19 20 20 21 21 22 22 23 23 23 24 24 23 23 23 23 24 24 23 22 21
13 15 15 17 16 17 16 17 17 17 19 20 19 20 20 19 20 22 21 22 20 18 17 17 18 18 19 20 21 22 22 22 23 23 23 23 24 25 26 26 25 24 24 24 25 24 24 23 23
13 14 13 14 14 14 13 15 15 17 18 18 18 19 19 20 22 22 22 21 20 18 18 18 19 19 20 20 21 23 24 24 25 25 25 25 24 25 25 25 26 27 26 26 26 25 25 25 25
11 11 12 12 12 13 12 13 15 16 16 17 18 19 20 21 23 22 21 21 20 20 20 19 19 20 21 22 23 23 25 26 26 26 26 26 26 26 26 27 27 28 27 27 27 26 26 27 27
7 9 12 13 12 12 11 14 19 19 16 16 18 18 19 20 21 20 20 21 21 21 21 21 21 21 22 23 24 24 25 26 27 26 26 27 27 27 28 29 29 29 30 29 29 28 28 27 28
7 9 12 15 13 12 11 15 19 19 18 18 18 18 19 20 20 20 21 21 22 22 22 22 22 23 23 24 25 26 26 27 28 28 28 28 28 29 29 30 30 31 30 30 30 31 30 29 29
10 11 13 15 14 13 14 16 18 18 15 16 18 19 18 19 20 20 20 20 22 22 22 22 23 24 25 26 26 27 28 28 29 29 29 30 30 30 30 31 31 32 32 32 32 31 30 30 31
13 12 13 14 15 15 14 16 17 18 16 17 18 18 19 20 20 20 21 21 22 22 23 24 25 26 26 27 27 27 28 29 30 30 30 31 31 31 31 32 33 33 33 33 33 33 32 32 32
14 14 14 15 15 14 13 16 18 19 16 16 17 19 20 20 20 21 22 22 22 23 24 25 25 27 27 28 28 28 29 30 30 31 31 32 32 32 32 33 34 34 33 33 33 33 32 32 33
12 13 14 15 14 14 14 17 20 20 19 18 18 20 20 21 21 21 22 23 24 25 25 26 27 28 28 28 29 29 30 31 31 32 32 32 32 31 32 32 33 34 33 32 32 32 32 31 32
11 13 16 16 16 16 15 16 21 22 21 19 18 19 20 21 22 22 24 24 25 26 27 28 28 29 29 29 30 30 30 31 31 31 32 32 31 31 31 31 31 32 31 31 31 32 32 31 31
11 13 14 15 16 19 17 18 22 22 19 19 17 18 20 21 23 24 25 25 25 26 27 28 29 29 30 30 31 31 31 31 30 31 31 31 31 31 31 31 31 31 31 31 31 32 31 31 31
10 10 11 14 18 19 18 20 21 20 18 18 18 18 20 22 23 24 24 24 25 26 27 28 28 29 30 30 30 31 31 30 30 30 31 30 30 30 31 32 31 31 31 31 30 31 31 31 31
9 9 12 15 15 14 14 17 17 17 18 19 18 20 21 21 22 23 23 24 25 26 27 28 29 29 30 30 30 30 31 31 30 31 31 31 30 31 31 32 31 31 31 31 31 31 31 31 30
10 10 13 14 14 15 13 15 15 18 18 17 18 20 21 21 22 22 23 25 26 26 27 28 29 29 29 29 30 30 30 30 30 31 31 31 31 31 31 31 31 31 31 31 31 31 31 31 30
11 12 13 12 14 13 14 17 20 19 16 16 19 20 20 21 23 23 24 25 26 26 27 27 28 28 29 29 29 28 28 29 29 29 30 31 31 31 31 31 31 31 31 31 31 31 31 31 30
12 12 14 13 15 15 17 20 20 20 18 18 19 19 21 23 24 24 25 26 27 27 27 27 27 27 28 27 27 28 28 29 29 29 29 29 30 30 30 30 31 31 30 30 31 30 30 30 30
14 13 14 15 15 16 18 20 21 21 20 18 20 21 22 24 24 25 26 27 27 27 27 27 26 25 26 26 26 26 26 27 27 27 27 28 28 28 29 28 28 29 29 29 30 30 30 30 30

GEFSSGP_500_meanwind_132.txt.gz
Wind_Speed
12 11 11 10 10 11 12 13 13 13 13 13 14 15 16 15 13 13 11 11 10 9 9 8 8 8 8 8 9 9 9 9 10 10 11 11 11 11 11 11 11 11 10 10 10 9 9 8 7
12 12 11 10 11 12 14 15 14 14 14 15 16 17 18 17 16 15 14 13 12 11 11 11 10 10 9 9 10 10 10 10 11 11 11 11 12 12 12 12 12 12 12 12 12 11 10 9 8
13 12 12 11 13 15 17 15 15 14 16 17 18 18 18 17 17 17 16 15 14 12 12 13 12 11 11 11 11 11 11 12 12 12 12 12 13 13 13 13 13 13 14 13 13 12 12 11 9
14 13 13 13 15 17 18 17 16 16 17 19 21 20 18 16 17 18 18 17 15 13 13 14 13 13 13 12 12 13 13 13 13 13 13 14 14 14 14 14 14 14 15 14 14 13 12 12 11
14 13 13 14 17 18 19 18 17 17 16 20 23 22 21 18 18 19 18 17 15 14 14 14 14 13 13 14 14 14 14 14 14 14 14 14 15 15 15 15 15 15 15 16 16 15 14 13 12
14 13 13 15 18 20 21 18 18 18 18 21 23 23 22 20 20 20 19 18 16 15 14 15 15 14 14 15 15 15 15 15 15 15 15 15 16 16 16 16 16 16 17 16 17 17 16 15 14
13 13 14 17 20 20 20 17 17 18 20 23 23 24 22 21 20 21 20 19 18 16 15 15 15 15 15 16 16 16 16 16 16 15 16 16 16 16 16 17 17 17 18 17 17 17 17 16 15
13 13 16 18 21 21 19 17 17 19 22 24 25 25 23 23 22 21 19 18 18 18 16 16 16 16 15 16 16 16 16 16 16 16 16 17 17 17 17 18 18 18 18 18 18 18 18 18 17
14 14 17 20 22 21 19 16 18 20 22 25 26 25 25 24 22 21 19 19 19 17 16 15 16 16 16 16 17 17 17 17 17 17 17 18 18 18 18 18 18 19 20 19 19 19 19 19 19
15 16 19 21 21 20 18 18 20 21 22 24 25 26 24 22 21 21 19 18 18 17 16 17 16 16 16 16 17 17 17 17 17 18 18 19 19 19 20 19 19 20 20 21 21 21 21 21 20
18 19 21 21 21 20 18 18 20 22 23 24 25 25 23 20 19 19 19 18 17 17 16 16 17 17 17 17 18 17 17 17 18 18 18 19 20 20 21 20 20 20 21 21 21 21 21 21 21
21 21 21 21 21 19 18 18 19 22 23 24 24 23 22 23 21 21 19 17 17 17 14 13 14 16 17 16 17 17 18 19 19 20 20 20 21 22 22 23 22 20 21 20 20 21 21 21 21
22 22 22 21 20 19 19 19 21 22 23 24 24 23 23 22 21 20 18 18 18 16 14 15 14 14 16 17 18 18 19 18 19 20 20 21 21 22 23 23 23 21 21 21 21 21 22 22 22
22 22 21 21 20 20 21 21 22 23 23 23 21 21 22 21 20 21 20 18 18 18 15 14 14 13 14 14 14 16 18 18 20 20 20 20 21 22 22 22 23 22 22 22 22 22 22 23 22
21 21 20 20 19 19 20 22 22 22 21 21 20 20 20 20 19 19 20 21 20 20 16 14 14 15 14 14 15 16 17 18 20 21 21 22 23 23 23 22 22 22 22 23 23 23 23 23 23
18 19 18 18 17 17 18 19 19 18 18 18 17 17 18 19 19 18 18 19 18 17 14 15 15 16 15 15 16 18 19 20 21 22 23 23 23 23 23 23 23 24 24 23 24 25 25 25 24
15 14 13 13 13 13 14 15 15 16 16 16 16 16 17 17 18 17 17 18 17 16 15 16 16 16 17 17 19 20 21 22 21 21 23 24 24 24 23 24 24 25 25 25 25 26 26 26 25
11 10 10 10 9 10 11 13 15 16 16 16 16 16 17 16 17 17 17 16 16 16 15 15 16 17 18 20 21 21 22 23 23 22 23 24 25 25 24 25 25 26 26 26 26 26 27 27 27
10 10 10 10 10 10 11 14 16 18 16 16 17 17 17 15 16 17 17 16 16 16 16 18 18 18 20 21 22 23 23 23 23 24 24 25 25 25 25 25 26 27 28 27 28 28 28 27 28
11 9 8 9 10 11 13 14 17 18 17 17 18 19 18 17 17 16 16 16 17 18 18 18 18 19 21 22 23 24 24 25 25 25 25 25 26 26 26 26 26 27 28 28 28 29 29 29 29
11 10 9 10 10 11 14 16 18 19 19 19 18 18 17 16 17 16 17 17 17 18 19 20 20 21 22 23 24 25 25 26 26 26 26 27 27 27 27 27 28 28 28 28 28 28 28 28 29
12 12 13 12 11 13 14 16 16 19 18 18 18 18 17 17 16 17 17 17 17 19 20 21 21 22 23 24 25 26 27 27 27 28 28 28 28 28 28 28 28 28 29 29 29 28 28 28 28
13 15 15 15 15 16 17 18 19 20 19 19 19 19 17 17 17 17 17 18 19 20 21 21 22 23 24 24 25 26 27 27 28 28 29 29 28 28 28 29 29 29 28 29 29 28 28 28 28
12 14 16 17 18 19 19 19 21 21 20 20 20 19 19 16 16 17 18 18 19 20 21 21 22 24 25 25 26 27 28 28 28 28 28 28 27 27 28 29 30 29 29 28 28 28 27 27 27
12 13 14 15 15 17 18 20 20 20 21 21 21 21 20 17 16 16 17 18 20 20 21 22 23 25 26 27 27 28 28 28 29 29 28 28 27 27 28 28 29 29 29 28 28 28 28 28 27
10 12 13 14 15 15 17 19 18 18 19 20 21 21 20 18 16 16 17 19 20 21 22 23 24 26 27 28 29 29 29 29 29 29 29 28 28 28 28 28 28 28 28 28 28 28 28 27 27
11 12 14 14 14 15 15 15 15 16 17 18 18 18 17 16 16 16 18 19 21 22 24 24 25 27 27 28 29 30 29 29 29 29 29 29 28 28 29 29 28 28 28 28 28 28 28 28 27
11 12 14 14 14 15 16 15 14 14 15 16 16 17 17 15 15 17 18 20 22 23 25 25 26 27 27 27 27 27 27 28 28 28 28 28 28 29 29 28 28 27 27 28 28 28 28 28 28
13 13 13 14 15 16 16 14 14 14 14 14 15 15 16 16 16 18 20 22 23 23 24 25 26 26 26 26 25 25 25 25 26 26 26 26 27 28 27 27 26 26 26 26 26 26 27 27 28
14 14 14 14 14 16 16 15 14 15 15 15 16 17 17 17 17 19 21 22 22 23 24 24 25 25 25 24 24 24 23 23 24 24 25 25 26 25 25 25 26 25 25 24 24 24 24 25 26

GEFSSGP_500_meanwind_138.txt.gz
Wind_Speed
12 12 13 13 13 13 14 14 14 14 12 11 9 8 7 7 7 8 8 8 8 8 9 9 9 9 8 7 6 6 6 6 6 6 6 6 7 7 7 8 9 9 9 9 9 9 9 9 9
12 13 13 14 14 14 16 16 16 16 15 13 11 10 9 9 9 10 10 10 10 11 11 11 11 10 10 9 8 8 8 8 7 7 8 8 8 8 9 9 10 10 10 10 10 10 10 10 9
14 14 14 14 15 16 17 17 18 17 16 13 12 11 11 11 12 13 12 12 12 12 13 13 13 12 11 11 10 10 10 10 9 10 9 9 10 10 11 11 11 11 11 11 10 10 10 10 10
15 15 15 16 17 18 19 19 18 18 17 14 12 12 11 12 13 14 14 14 14 14 14 15 14 13 12 12 11 11 11 11 11 11 11 12 12 12 12 12 12 12 12 12 12 11 11 11 11
16 16 16 17 19 20 20 20 20 20 17 15 14 13 14 14 14 15 16 16 15 15 15 16 15 14 13 12 12 12 12 13 13 13 13 13 13 13 13 13 13 14 14 13 13 12 12 12 12
17 17 17 18 20 21 22 22 22 21 19 17 15 14 14 14 15 16 17 17 16 16 16 16 15 15 14 14 14 14 14 14 14 14 14 14 14 15 15 14 15 15 15 15 15 14 14 14 14
18 18 19 20 22 23 24 23 22 21 20 18 17 15 15 16 16 17 17 17 17 17 17 18 17 17 16 15 15 15 15 15 15 15 15 15 15 15 15 15 16 16 16 16 17 16 16 15 15
19 19 21 22 24 25 26 24 23 22 20 18 17 16 15 16 17 18 16 16 18 18 17 18 17 18 17 16 16 17 17 17 16 16 16 16 16 16 16 17 17 17 17 17 18 18 18 17 16
19 20 22 23 25 26 26 25 23 21 19 18 17 16 16 17 19 18 16 15 17 17 17 16 16 17 18 17 17 17 18 18 17 17 17 17 17 18 18 18 17 17 17 18 18 19 18 18 18
20 21 23 25 26 27 26 25 23 22 20 18 17 16 17 18 18 19 18 17 17 17 16 14 14 16 17 17 17 17 17 18 18 18 18 18 18 19 19 18 18 18 18 18 18 19 19 19 19
21 23 25 26 26 26 25 25 24 22 20 19 18 17 17 18 18 18 18 17 17 17 16 14 14 15 17 17 17 18 18 19 19 18 18 18 19 19 19 19 20 20 20 20 20 20 20 20 19
23 24 25 25 26 26 25 24 24 22 20 19 18 18 17 18 18 19 19 18 17 16 15 14 16 17 18 18 18 17 17 18 19 20 20 19 19 21 21 21 21 22 22 22 22 21 21 20 19
23 25 25 25 26 25 24 23 23 22 21 19 18 18 18 18 18 19 19 18 17 17 15 15 16 17 18 18 18 17 17 17 19 20 20 21 21 21 22 23 24 23 23 23 23 23 22 22 21
23 24 24 23 24 24 24 23 22 21 20 19 19 18 18 18 17 18 18 17 17 17 16 16 17 17 18 19 19 17 18 18 19 20 21 22 23 23 23 22 23 24 24 24 24 24 24 24 24
23 24 23 23 23 24 23 22 22 21 20 19 19 17 17 16 15 16 16 16 16 15 16 16 17 17 17 18 18 16 17 18 19 21 21 22 22 22 23 23 24 25 24 25 25 24 24 25 25
21 22 23 23 23 23 22 22 22 21 20 19 19 17 16 15 15 16 16 15 15 15 15 15 16 16 15 17 18 18 17 18 20 20 20 21 21 22 23 23 24 25 25 25 25 25 25 26 25
19 20 22 22 22 22 22 21 21 20 19 18 17 17 16 16 15 16 16 15 14 15 14 14 15 16 17 17 17 18 18 18 18 19 19 20 21 21 22 23 24 25 25 25 25 26 26 27 26
18 20 21 21 21 21 21 21 20 19 19 18 18 17 16 15 15 16 16 15 16 16 16 16 17 18 18 19 18 19 20 19 19 19 19 20 21 22 23 24 24 25 25 26 27 27 27 28 28
18 18 19 20 20 20 20 20 19 19 19 19 18 17 16 16 16 17 17 17 18 18 18 17 18 17 18 19 20 20 21 20 21 21 21 21 22 23 25 25 25 26 26 26 27 27 27 27 28
16 16 17 18 18 18 18 18 18 18 18 17 16 16 17 16 17 18 17 18 19 18 18 18 18 19 20 20 21 21 21 21 22 22 23 24 24 24 26 26 27 27 28 27 27 27 28 29 29
15 15 15 15 16 17 17 17 16 16 16 16 15 15 16 17 16 17 17 18 19 19 19 19 19 20 20 20 20 22 23 23 24 24 24 25 26 26 27 27 28 28 28 28 28 28 29 29 29
15 14 14 14 15 15 16 16 15 15 16 16 16 16 17 17 18 18 18 18 19 19 19 20 19 19 20 21 22 23 24 25 26 26 26 27 27 27 28 29 29 29 29 29 29 29 29 29 29
15 14 14 14 14 14 15 15 15 15 15 15 16 17 17 17 19 19 19 19 20 21 21 20 20 20 21 23 24 25 25 26 26 27 27 27 27 27 27 28 28 28 29 29 29 29 29 29 29
14 15 15 14 14 15 14 15 15 15 15 16 17 18 18 18 19 20 20 21 21 22 23 23 22 22 23 24 25 26 27 27 28 28 28 28 28 27 27 28 28 28 29 29 29 29 30 29 29
15 16 16 15 15 15 15 15 15 15 15 16 17 17 17 19 20 20 20 21 22 22 22 23 23 23 24 25 26 27 28 29 30 29 30 29 29 29 29 29 29 29 28 28 29 29 29 29 29
14 15 15 16 16 15 15 15 15 15 14 15 16 17 16 18 20 21 21 22 23 23 23 23 23 24 25 25 26 28 29 30 31 31 30 30 30 30 30 29 30 29 29 29 29 29 29 29 29
11 12 13 14 15 15 15 15 14 14 14 15 16 16 17 17 19 20 22 23 23 23 23 23 24 24 25 26 27 28 28 28 28 29 30 30 29 29 29 28 28 28 29 29 29 29 29 28 29
11 12 12 13 13 14 14 14 13 13 14 15 15 16 17 18 18 20 22 22 22 22 23 23 23 24 25 26 26 26 26 26 26 25 26 26 27 28 28 27 27 28 28 28 28 28 28 28 29
11 12 13 14 14 14 13 13 13 14 14 15 16 16 17 17 18 19 20 21 22 22 21 21 22 23 23 23 24 24 24 24 23 23 23 23 23 24 24 25 26 27 27 27 27 28 28 28 28
12 12 12 13 14 13 14 13 13 14 14 15 15 16 17 18 19 19 20 21 21 20 20 21 21 22 22 22 22 22 22 22 21 21 21 21 21 22 22 23 24 25 25 26 27 27 27 26 26

GEFSSGP_500_meanwind_144.txt.gz
Wind_Speed
11 11 11 11 11 11 12 12 10 9 8 7 6 5 4 3 3 4 5 5 5 4 4 3 3 4 5 5 6 6 6 6 6 6 6 5 5 4 4 3 4 4 4 4 4 4 4 4 4
11 11 12 12 11 11 14 13 12 11 9 8 7 7 6 5 6 6 6 6 6 6 5 5 5 6 6 7 7 8 7 7 7 7 7 7 6 6 5 5 5 5 5 6 5 5 5 5 5
12 12 12 12 13 14 16 14 13 12 11 10 9 9 8 7 7 7 6 6 6 7 7 7 7 7 8 9 9 10 9 9 9 9 8 8 7 7 7 7 7 7 7 7 7 7 6 6 6
13 13 13 14 15 17 17 15 13 12 12 11 10 10 9 8 8 8 8 8 8 8 8 8 9 9 9 10 11 11 11 11 10 10 10 9 9 8 8 9 9 9 8 8 8 8 8 8 7
15 14 14 15 17 18 17 16 14 13 12 11 11 10 9 9 10 10 11 10 10 9 10 10 10 9 10 11 12 12 12 12 12 12 12 11 10 10 10 10 10 10 10 9 9 9 9 9 9
16 15 15 17 18 18 17 16 15 14 13 12 12 11 10 11 11 12 12 12 11 11 11 11 10 10 11 12 13 13 14 13 13 13 13 12 12 12 12 12 12 12 11 11 11 10 11 10 10
17 16 17 19 20 20 18 17 16 15 14 13 13 13 13 12 13 13 13 14 13 13 13 12 13 13 13 13 14 15 15 15 15 15 15 14 14 14 13 13 13 13 13 12 12 11 11 12 11
17 17 18 20 20 21 19 18 17 15 15 14 14 15 14 14 14 14 14 13 14 14 14 15 15 15 15 15 15 16 16 17 17 17 16 15 14 15 14 14 14 14 14 14 13 13 13 13 13
17 17 19 21 21 21 20 19 18 17 16 16 16 16 15 14 15 15 14 15 15 14 14 15 16 15 14 15 16 17 17 17 17 17 17 17 16 16 15 15 15 15 15 15 14 15 15 14 13
18 19 21 21 21 21 20 20 18 17 17 16 17 17 16 15 16 16 17 16 15 14 14 15 16 16 16 16 18 18 18 18 17 18 19 18 17 17 17 16 16 16 16 16 16 16 15 15 15
19 20 20 21 21 20 20 20 19 18 18 17 16 16 16 16 17 17 17 16 15 14 15 15 15 15 16 16 17 18 18 18 18 18 19 20 20 19 19 19 18 18 18 18 17 17 17 16 16
20 20 20 20 20 20 20 20 19 18 18 18 18 18 17 18 18 18 18 16 15 15 15 16 16 15 15 15 16 16 17 17 18 19 19 20 21 20 20 21 20 20 20 20 19 19 18 18 18
20 20 20 19 19 20 20 20 20 19 18 18 19 18 18 18 18 19 17 16 16 16 15 16 16 16 16 16 16 16 18 19 19 19 20 21 22 22 22 23 23 23 22 22 22 21 20 20 20
19 19 19 19 19 19 19 20 20 19 18 18 18 18 18 18 19 18 17 16 16 16 16 16 16 16 16 17 18 18 19 20 20 20 21 22 23 23 24 24 25 25 24 24 23 22 23 22 22
17 18 18 18 18 19 19 20 20 19 18 18 18 18 18 19 19 18 17 17 17 17 17 17 16 16 17 18 18 18 19 21 22 21 22 22 23 24 24 24 25 26 25 25 24 24 23 23 23
15 15 16 17 18 18 17 19 19 18 18 18 18 18 18 19 18 17 17 17 18 18 18 18 17 16 17 18 19 19 20 21 22 22 22 23 23 24 25 25 25 26 26 26 26 25 24 24 25
15 15 16 17 18 18 18 19 19 19 18 18 18 18 18 18 17 16 17 17 17 17 17 18 17 16 16 17 19 19 20 21 22 23 22 23 24 24 25 25 25 25 26 26 26 26 26 26 26
15 15 16 17 18 18 18 19 19 19 19 18 18 18 18 17 16 17 17 17 17 17 17 17 17 17 18 18 18 20 21 23 23 23 23 24 25 25 26 26 26 26 27 27 27 27 27 27 27
15 15 16 17 16 17 18 19 19 19 19 19 19 19 18 18 18 18 18 18 17 16 16 16 17 18 19 19 20 21 22 23 24 24 25 26 26 26 27 27 27 26 27 27 28 28 28 28 28
13 14 15 16 16 16 17 18 18 18 18 19 19 19 18 19 19 19 19 19 18 17 17 18 18 18 19 20 21 22 22 23 24 25 25 26 26 27 28 28 28 28 28 29 29 29 29 29 29
12 12 13 14 14 15 16 17 17 17 17 18 19 19 18 19 19 20 19 19 19 19 19 19 19 19 19 20 22 23 24 24 25 26 26 26 27 28 29 29 30 30 30 31 31 32 31 31 31
11 11 12 11 11 13 13 14 16 16 16 17 18 18 18 19 19 19 20 20 20 20 20 20 21 21 21 21 23 24 24 24 25 27 27 28 28 29 30 31 31 32 32 32 32 31 31 31 31
12 11 11 11 11 12 12 12 15 16 16 16 17 18 18 19 19 20 21 21 22 22 22 21 22 23 22 22 23 24 25 26 27 28 28 29 30 30 31 32 33 33 33 33 32 31 32 32 31
11 10 11 11 11 12 13 12 14 15 16 17 17 18 18 19 20 21 21 21 21 22 22 22 23 24 24 24 24 24 25 26 27 28 29 30 31 32 32 33 33 33 33 33 33 33 33 32 32
10 9 9 9 11 12 15 14 15 15 15 16 17 17 18 18 19 20 20 20 21 21 23 23 23 23 24 24 24 25 25 26 27 29 30 31 32 32 33 34 34 34 35 34 34 34 34 33 32
10 10 10 10 11 12 15 14 14 14 15 16 16 16 17 17 17 18 19 20 21 22 23 22 23 25 25 25 25 25 26 26 27 28 29 29 30 31 32 32 32 33 33 33 33 33 33 33 32
9 10 12 12 12 12 14 15 14 14 15 16 16 17 17 18 18 19 20 21 21 23 23 22 23 25 25 25 25 24 24 24 24 25 25 26 27 27 28 29 30 29 30 31 31 31 31 32 32
9 10 10 9 10 11 13 14 15 15 15 16 16 17 18 19 20 20 21 21 22 23 23 23 23 24 24 24 24 23 22 23 23 23 23 24 24 24 25 25 26 27 28 28 29 30 30 30 31
9 10 10 11 12 11 12 14 15 15 15 16 16 17 18 19 20 20 20 21 22 23 23 23 23 23 23 23 22 22 22 22 22 23 23 23 23 23 23 22 23 24 25 25 25 26 27 27 28
10 10 10 11 12 12 13 15 15 15 16 16 16 17 17 18 19 19 20 21 21 22 22 22 22 22 22 21 20 20 20 21 22 22 23 22 22 22 23 22 22 22 23 23 23 23 23 24 25

GEFSSGP_500_meanwind_150.txt.gz
Wind_Speed
10 10 9 9 8 5 3 5 9 13 14 11 10 10 10 9 9 9 9 8 8 8 8 9 8 8 8 8 9 9 9 9 10 10 10 10 9 9 8 8 8 7 7 6 6 5 5 5 4
11 10 10 9 8 5 4 10 12 14 13 11 11 11 12 12 12 11 11 9 9 9 9 10 10 10 10 11 10 10 11 11 11 11 11 11 11 10 10 9 9 8 8 7 7 6 6 6 5
11 11 10 10 8 6 9 13 14 14 14 13 12 12 13 13 12 12 11 10 10 10 10 10 12 12 12 12 12 12 12 13 13 12 12 12 12 12 11 11 10 10 9 8 8 8 7 7 7
12 12 11 10 8 8 11 13 15 14 15 13 13 13 13 13 13 12 11 11 11 11 11 12 13 13 14 14 14 14 14 14 14 14 14 13 13 13 12 12 11 11 10 10 9 9 9 8 8
13 13 12 9 8 10 13 15 15 14 16 13 14 13 12 12 12 12 12 12 12 13 13 13 14 14 15 15 15 16 15 15 15 15 15 15 14 14 13 13 13 12 12 11 11 11 10 10 10
14 13 11 9 9 14 17 17 15 16 15 13 14 13 14 13 13 13 13 14 14 14 14 16 16 15 15 16 17 17 16 17 17 17 16 16 16 15 15 14 14 14 13 13 13 12 11 11 11
15 13 10 8 12 16 18 17 16 15 15 15 15 14 15 14 12 13 14 15 15 15 15 16 17 17 17 17 18 18 18 18 18 19 18 18 17 17 16 16 16 15 15 15 14 14 13 13 13
15 14 12 11 14 17 20 17 16 16 16 16 15 15 14 13 13 14 14 15 15 16 16 16 17 18 19 19 19 20 20 19 20 20 19 19 18 18 17 17 17 17 16 16 15 15 15 14 14
15 13 12 12 13 17 20 17 16 17 17 17 17 16 14 14 15 15 15 16 16 17 18 18 17 18 19 19 19 19 20 20 20 20 20 21 20 19 18 18 18 18 18 17 17 17 16 16 16
15 13 13 15 16 18 19 17 17 17 18 18 18 16 15 14 15 16 16 17 17 18 19 18 18 18 18 18 19 20 20 21 21 21 21 21 22 21 19 18 18 18 18 18 18 18 18 17 17
16 16 18 19 20 20 19 18 16 16 16 17 17 15 15 16 17 17 17 17 18 19 20 19 19 19 18 18 19 20 20 21 21 21 21 21 21 21 21 19 19 19 19 18 18 19 19 19 19
17 19 20 20 22 20 19 17 18 18 15 16 17 17 17 17 17 17 17 18 19 20 20 20 21 21 20 19 19 21 22 22 22 21 20 21 21 20 21 20 20 20 19 19 19 19 19 20 20
19 18 19 19 19 19 18 18 16 16 16 17 17 18 17 17 18 18 18 19 20 20 21 21 21 21 21 21 21 21 22 23 22 20 20 21 21 20 20 21 22 21 21 21 21 21 21 21 22
17 17 18 18 17 17 17 17 16 17 17 18 17 18 18 18 19 19 19 20 20 20 21 21 21 21 21 21 22 22 21 22 23 22 21 21 21 20 20 21 22 21 21 22 22 23 22 22 23
15 15 15 16 16 16 16 17 17 17 17 17 18 19 18 19 20 20 20 20 20 20 21 21 22 22 22 22 23 23 22 22 22 22 23 23 23 22 22 22 22 22 23 24 24 24 24 23 23
12 13 13 13 14 15 15 16 17 16 16 17 18 19 18 19 20 20 20 20 20 20 21 22 22 22 23 23 23 23 23 23 24 24 25 24 24 24 24 24 24 24 24 24 25 25 25 25 25
9 9 10 12 13 13 14 16 16 16 16 17 18 19 19 20 21 20 20 19 19 20 21 22 23 23 23 23 23 24 24 24 24 24 25 25 25 25 25 25 25 25 26 26 26 26 26 26 25
8 10 12 14 13 12 13 16 16 18 17 18 19 20 19 20 21 21 20 19 19 20 21 22 23 23 22 23 23 23 23 23 24 24 25 26 26 26 26 26 27 27 27 27 28 28 27 27 27
10 11 13 13 15 14 14 18 18 19 19 19 21 21 20 21 22 22 21 20 20 21 21 22 22 22 23 22 22 23 23 24 24 24 25 26 27 27 27 28 28 29 29 27 28 28 27 27 27
13 13 14 14 17 16 16 19 18 21 21 21 21 21 20 21 22 22 21 21 21 21 22 22 23 24 24 24 24 24 25 25 25 26 26 27 27 27 28 29 30 29 30 29 28 28 28 28 28
13 13 14 16 17 16 17 19 19 20 21 21 21 21 20 21 21 21 22 22 22 23 23 24 24 25 25 25 25 26 27 27 27 27 27 27 26 27 28 30 31 31 31 30 31 30 30 30 30
11 12 15 16 17 17 17 19 19 21 21 19 20 20 21 21 22 22 22 22 22 22 23 24 25 25 26 25 26 27 28 28 28 28 29 29 29 29 30 31 31 32 32 32 32 32 31 31 31
12 14 16 16 17 18 19 19 21 22 22 19 19 20 21 22 23 23 23 23 22 23 24 24 24 25 25 25 26 27 28 30 30 30 30 29 30 31 31 31 32 32 31 32 32 32 32 31 31
14 15 16 16 17 20 19 21 21 21 20 20 19 19 20 23 21 22 23 23 23 23 24 24 25 24 25 26 26 28 29 30 30 30 29 30 30 31 31 31 32 32 31 32 33 33 32 31 31
12 12 13 15 17 19 18 20 21 20 19 20 21 20 20 21 20 21 23 23 24 25 25 25 25 25 26 27 27 28 29 29 29 29 29 29 29 29 29 30 30 31 31 32 32 32 31 31 32
12 13 15 16 18 18 17 19 19 18 20 22 22 23 22 20 21 22 23 23 24 24 24 25 26 26 26 27 28 29 29 28 27 26 26 27 27 27 28 29 29 30 30 30 31 31 31 30 30
10 12 14 16 17 17 16 16 17 18 21 22 23 23 21 20 21 21 23 23 24 24 25 25 25 26 26 26 27 27 27 27 26 25 25 24 25 26 26 27 27 28 28 28 28 28 28 28 28
12 13 14 15 15 16 13 15 16 18 19 20 21 22 22 21 21 21 22 23 23 23 24 25 25 25 25 25 26 26 26 26 25 24 24 24 25 25 25 25 25 25 25 25 26 27 27 27 27
12 13 13 14 15 15 17 19 20 19 19 20 20 21 21 22 22 22 23 24 24 24 24 25 24 25 25 25 25 25 25 24 24 24 23 24 24 24 25 24 24 23 23 24 24 24 24 25 25
13 14 15 17 17 18 19 21 21 21 22 22 22 23 22 23 23 23 23 24 24 24 23 24 24 23 23 23 24 24 23 24 24 23 23 23 23 22 22 22 22 22 22 22 22 22 22 22 23

GEFSSGP_500_meanwind_156.txt.gz
Wind_Speed
13 12 12 11 11 10 10 9 9 8 7 7 8 10 9 9 7 7 7 6 6 5 5 6 6 7 8 8 9 10 10 11 11 12 12 12 13 13 13 12 12 12 11 11 10 10 10 9 8
14 14 13 13 12 11 10 10 10 9 8 8 9 11 11 11 9 9 9 7 8 7 7 8 8 8 9 10 10 11 12 12 13 13 13 14 14 14 14 14 13 13 13 12 12 12 11 10 9
15 15 15 14 13 12 11 11 11 10 10 11 11 11 12 11 10 11 10 9 9 9 9 10 9 9 10 11 12 13 13 13 14 14 15 15 15 15 15 15 15 14 14 14 13 13 12 11 11
16 16 16 16 15 13 13 12 11 12 13 13 13 12 13 12 11 11 11 10 9 9 9 10 10 10 11 12 13 14 14 15 15 15 16 16 16 16 17 17 16 16 15 15 15 14 13 13 12
17 17 17 17 16 15 15 13 13 14 13 13 13 13 14 12 11 10 9 9 9 10 10 11 11 12 13 14 14 15 15 16 16 17 17 17 18 17 17 18 18 17 17 16 16 15 15 14 13
18 18 18 18 17 16 15 15 13 14 14 14 14 15 15 13 12 11 12 11 10 10 11 13 13 14 14 15 16 16 17 17 18 18 18 19 19 18 19 19 19 19 18 18 17 16 16 15 14
19 19 19 19 18 16 16 15 14 14 14 16 16 16 14 12 12 11 11 11 10 11 12 13 14 15 16 16 17 17 18 18 19 20 19 19 19 19 20 20 20 20 20 19 18 18 17 16 16
19 19 20 19 18 17 16 14 14 15 17 18 17 16 15 13 12 11 11 12 12 12 13 13 14 15 17 17 18 19 19 20 21 21 20 20 20 21 21 21 21 21 21 21 20 19 18 18 17
19 20 20 20 20 18 16 14 15 16 18 18 17 16 15 14 12 12 12 13 13 13 14 15 15 16 17 17 18 18 19 20 21 21 20 20 21 21 22 22 22 21 21 21 20 20 20 19 18
20 20 21 22 21 19 16 15 16 16 17 18 18 17 16 15 14 13 13 14 14 14 15 16 17 17 17 17 18 18 19 20 20 20 21 21 21 22 23 23 22 22 22 22 21 20 20 19 19
21 22 22 22 21 19 16 16 17 16 17 18 18 17 17 16 15 14 14 15 15 16 16 17 17 17 17 18 18 17 18 19 20 21 21 21 22 22 23 23 24 23 23 23 22 22 21 20 20
23 23 23 22 20 18 17 16 16 17 18 17 17 17 17 16 15 15 16 16 17 17 17 18 17 18 17 17 18 18 19 20 20 21 22 22 23 23 23 23 24 24 24 24 24 23 22 21 21
23 23 24 23 20 19 17 17 18 19 19 19 19 18 17 17 17 16 17 18 18 18 17 18 18 18 17 18 19 19 20 21 20 21 21 21 22 23 22 23 23 23 23 24 24 24 23 22 22
24 24 24 23 21 19 18 17 18 19 19 18 17 17 16 16 17 17 18 18 18 19 18 18 18 19 18 19 19 19 20 20 20 20 21 22 22 22 22 23 23 23 22 22 23 23 23 23 23
23 22 22 21 20 18 18 18 17 17 18 18 17 17 16 16 17 18 19 19 20 20 19 19 19 19 19 19 20 20 20 21 20 19 20 21 21 22 23 23 23 23 22 21 21 22 22 23 23
21 20 20 19 18 16 17 17 15 16 16 16 16 16 16 17 16 17 19 20 20 20 20 20 18 18 19 20 20 20 21 21 21 21 21 21 21 22 23 23 24 24 23 23 23 23 23 24 24
18 17 17 16 15 15 15 14 13 12 13 14 14 15 15 15 17 18 19 20 20 19 19 19 19 19 20 20 21 21 22 22 23 22 22 22 22 22 23 23 24 24 24 24 24 24 24 24 24
15 14 14 14 13 13 13 12 12 12 12 13 14 14 14 15 17 18 19 19 19 18 19 19 20 19 20 21 22 22 24 24 24 24 24 24 23 23 23 24 24 25 25 24 24 25 25 25 25
14 12 10 9 10 11 11 12 12 13 14 14 15 16 16 17 17 18 19 19 18 19 19 20 20 21 21 22 22 23 23 24 24 23 23 23 24 24 25 25 24 25 26 26 26 26 26 26 27
13 10 9 9 10 12 12 13 14 14 15 16 17 18 18 17 17 19 21 21 19 19 20 21 20 21 22 22 23 24 24 24 23 24 24 24 24 25 26 26 25 26 27 28 28 28 28 28 28
11 10 10 11 12 15 16 17 16 17 18 18 19 18 18 17 18 19 20 21 21 21 21 21 21 21 22 23 23 24 24 24 24 24 24 24 25 26 27 27 27 27 28 29 29 29 29 29 29
10 10 11 12 14 16 19 20 19 20 20 20 19 18 19 18 18 19 19 20 21 21 21 21 21 22 23 24 24 25 24 25 25 24 24 25 26 27 28 28 28 28 28 28 28 28 29 29 29
11 12 13 13 15 17 18 21 21 21 21 21 21 19 18 18 18 19 18 20 21 21 21 20 21 23 24 25 25 25 26 26 26 25 26 26 27 27 27 27 27 27 27 27 27 28 29 29 29
14 14 15 15 16 18 19 22 23 23 22 22 21 20 20 19 18 19 19 20 21 21 21 23 23 23 24 25 26 26 27 27 26 27 27 27 27 26 26 26 26 27 27 27 27 28 28 28 29
13 15 16 17 18 19 20 22 23 23 23 22 21 21 21 19 18 18 19 20 21 21 21 22 22 24 25 26 26 27 27 27 26 27 27 27 26 26 25 25 25 25 25 25 25 26 26 27 28
13 14 16 18 19 18 19 22 23 24 23 22 22 21 20 19 18 19 20 20 20 20 21 22 22 23 24 25 25 26 26 25 26 26 26 26 26 26 25 24 24 24 23 23 24 24 25 25 26
13 15 16 18 19 20 19 20 21 21 21 19 19 19 19 19 19 20 20 20 21 22 21 22 23 23 24 24 25 26 25 25 24 25 25 26 25 25 24 23 22 23 23 22 23 23 23 24 23
14 15 16 17 18 19 20 20 18 17 18 17 16 18 20 20 19 20 20 20 21 22 22 21 22 22 23 24 24 24 24 24 24 24 23 24 23 23 23 22 21 21 21 21 21 21 21 21 21
14 15 15 16 18 19 19 19 17 17 17 17 18 18 18 19 19 19 20 21 21 21 21 21 21 22 22 22 22 22 23 23 24 23 23 23 21 21 20 20 20 19 19 19 19 19 19 19 19
14 15 15 16 16 18 19 19 18 18 18 18 18 18 18 18 19 19 19 20 20 20 21 21 21 21 20 20 20 21 21 22 21 21 21 20 20 20 19 19 18 18 18 18 17 17 17 17 17

GEFSSGP_500_meanwind_162.txt.gz
Wind_Speed
14 14 14 13 12 11 11 9 8 5 4 3 2 2 2 3 5 5 5 5 5 6 7 8 9 9 9 9 9 9 9 9 10 10 11 12 12 13 13 13 14 14 14 14 14 14 13 13 12
16 16 15 15 14 13 12 11 9 7 5 5 3 3 4 5 5 6 6 6 7 8 9 9 10 10 10 10 10 10 11 11 12 12 13 13 14 15 15 15 15 15 15 15 15 15 14 14 14
17 17 16 16 15 14 14 13 11 9 7 6 5 5 6 6 7 7 8 8 8 9 10 10 10 11 11 11 11 11 12 13 13 14 14 15 15 16 16 16 17 17 17 17 16 16 15 15 14
19 18 18 17 16 16 15 14 12 10 9 7 6 7 8 8 9 9 9 9 9 10 10 11 11 11 11 11 12 13 13 14 14 15 15 16 16 16 17 17 18 18 18 18 18 17 16 16 15
20 19 19 18 17 17 16 15 14 13 11 9 7 7 9 10 11 11 10 10 11 11 12 12 11 11 11 12 12 13 14 14 15 16 17 17 18 18 18 18 18 19 19 19 19 19 18 17 16
21 20 19 19 19 19 18 16 14 13 11 10 8 8 10 11 12 11 10 11 12 12 13 12 12 12 12 13 13 14 15 15 16 17 18 19 19 20 20 20 19 20 20 20 20 20 19 18 18
21 20 20 20 21 21 19 18 15 14 12 10 9 9 11 11 12 11 11 12 13 13 13 13 13 13 14 14 15 15 17 17 18 19 19 19 20 20 21 21 21 21 21 21 21 21 21 20 19
22 21 22 22 22 22 20 19 17 15 13 11 9 10 11 12 12 12 12 13 13 14 14 14 14 15 15 15 16 17 17 18 19 19 20 20 20 21 21 23 22 22 22 22 22 22 22 22 21
22 22 23 23 23 22 21 19 17 15 13 12 11 11 11 11 12 13 13 13 14 15 15 15 15 16 17 17 17 18 18 18 19 19 20 21 21 22 22 23 23 23 23 22 22 22 23 22 22
23 23 23 23 23 23 21 18 16 15 14 13 12 11 12 12 13 13 14 14 14 15 16 17 17 18 18 17 18 18 18 18 18 18 19 21 22 22 23 23 24 23 23 23 22 23 23 23 23
23 23 23 24 23 22 19 17 16 16 14 13 12 12 12 13 13 14 15 15 16 16 17 18 19 19 18 19 19 19 18 18 19 19 19 20 21 22 22 23 24 23 24 24 24 24 24 24 24
23 24 24 24 22 20 19 17 17 16 14 14 13 14 14 14 15 16 16 17 17 17 17 18 19 20 19 20 20 20 19 19 19 19 20 21 21 22 23 23 24 23 24 24 24 24 25 25 24
23 24 24 24 22 20 19 17 16 16 15 16 16 16 16 17 17 17 17 18 18 17 18 19 20 20 20 20 20 20 20 20 20 20 21 21 21 21 23 23 23 24 24 25 25 25 25 25 25
23 23 24 23 22 20 19 17 16 16 17 17 17 15 15 16 17 17 18 19 19 18 19 19 19 20 21 21 21 21 21 21 21 21 21 21 21 21 22 23 24 24 23 24 24 25 26 26 26
22 23 24 23 22 20 19 17 18 17 18 18 17 16 16 17 17 18 19 20 19 19 19 20 20 21 22 22 22 21 22 21 21 21 21 22 22 21 22 22 23 23 23 23 24 24 25 25 25
22 23 23 23 23 21 20 18 18 18 18 17 16 16 16 16 17 18 19 20 20 20 20 21 22 22 22 22 22 21 22 22 22 22 22 22 22 22 23 23 23 23 23 23 24 24 24 25 25
21 21 22 22 22 21 20 20 19 18 17 16 16 16 16 17 18 18 19 20 20 20 21 21 22 21 22 22 23 22 22 23 23 24 24 23 23 23 23 23 24 24 25 24 24 25 26 26 26
20 20 20 21 21 20 19 19 18 18 16 16 16 16 17 17 18 18 19 19 19 20 20 21 21 21 21 23 24 23 23 23 24 24 24 24 23 24 24 25 25 25 26 25 26 26 26 26 26
19 19 19 20 20 20 20 19 18 17 17 17 17 17 18 18 19 20 19 19 19 20 22 21 21 21 22 23 23 22 23 25 25 24 24 24 25 25 25 26 26 26 27 27 27 27 26 26 26
18 19 19 21 21 21 20 18 18 18 17 17 17 18 19 20 20 20 20 20 20 21 22 23 22 22 22 23 23 23 24 25 24 25 26 26 27 27 27 27 27 27 27 28 28 27 27 27 27
17 17 18 20 21 20 20 19 19 20 20 19 18 19 20 21 21 21 20 21 21 22 22 23 23 23 24 24 25 25 25 25 25 26 26 27 28 28 27 27 27 27 27 27 28 28 28 27 27
16 16 17 18 19 19 20 20 19 19 19 19 20 20 21 21 21 21 21 21 22 22 23 23 23 24 25 25 26 26 27 26 27 28 28 28 28 28 27 27 27 28 27 27 28 28 28 28 29
15 16 17 17 18 19 19 19 18 18 18 18 19 20 21 22 22 22 22 23 23 23 23 23 23 24 25 27 27 27 27 27 28 28 29 28 28 28 28 28 28 28 28 28 28 28 28 28 29
14 15 16 17 18 19 19 20 18 18 18 19 20 21 22 22 22 23 23 23 23 22 23 24 24 25 25 26 26 26 26 26 27 27 28 28 28 28 28 29 28 28 28 28 28 28 28 28 29
14 15 16 17 18 19 19 20 19 19 19 20 20 21 21 22 22 22 22 23 23 23 23 24 24 25 25 25 26 26 25 25 26 27 27 27 27 28 28 28 28 28 28 28 28 28 27 27 27
15 16 17 18 19 19 19 20 19 19 20 20 20 21 21 21 21 22 23 23 23 24 24 24 23 23 24 24 24 24 24 24 25 25 26 27 27 28 28 28 28 28 28 27 27 26 26 25 25
16 16 17 19 19 19 19 18 18 19 20 20 20 20 20 21 21 22 23 23 24 24 24 24 23 22 22 22 22 23 22 23 24 24 25 25 26 26 26 26 26 26 26 25 25 25 24 24 24
16 17 17 18 19 19 18 18 18 18 19 20 21 22 22 22 22 22 22 23 24 24 24 23 22 22 22 21 21 21 20 21 22 22 23 24 24 24 24 24 24 24 23 23 23 23 22 21 21
16 17 17 17 18 19 19 18 19 20 21 21 21 21 21 22 22 22 22 23 23 22 22 23 22 21 21 21 20 19 19 20 21 22 22 22 21 21 21 22 22 22 21 21 21 20 20 20 20
17 17 17 18 18 19 20 19 19 19 20 20 20 20 21 21 22 22 21 21 21 21 21 22 21 20 20 19 19 19 19 19 20 19 19 19 19 20 20 20 20 20 20 19 19 18 18 18 18

GEFSSGP_500_meanwind_168.txt.gz
Wind_Speed
16 15 14 12 11 10 9 8 7 6 6 5 4 3 3 2 2 2 2 2 2 3 4 5 5 5 6 7 7 7 8 8 8 9 9 9 9 9 9 10 10 9 9 9 9 9 10 10 10
17 16 15 14 12 10 10 9 8 7 6 5 5 4 4 3 3 3 3 4 4 5 5 6 6 7 7 8 8 9 9 9 10 10 10 10 11 11 11 11 11 11 10 10 11 11 10 10 10
19 18 17 16 14 13 13 11 10 8 7 6 6 5 5 5 5 4 4 5 6 6 7 7 8 8 9 9 10 10 10 11 11 11 11 12 12 13 12 12 12 12 12 11 12 12 11 11 11
20 19 18 17 17 17 15 13 12 10 9 8 7 7 7 6 6 5 6 6 7 8 8 9 9 10 10 11 11 11 12 12 12 13 13 14 14 14 14 13 13 13 13 13 12 13 13 13 12
21 20 19 18 18 17 15 14 13 12 11 10 9 8 8 7 7 7 7 8 8 9 9 10 10 11 11 12 13 13 13 13 13 14 15 15 15 15 15 14 14 14 14 14 14 14 14 14 13
22 21 20 19 19 17 16 15 15 13 12 11 10 9 8 8 8 8 8 8 9 10 10 11 11 11 12 13 13 14 14 14 15 16 16 16 16 16 16 16 16 16 16 16 16 15 15 15 15
22 22 21 20 19 18 17 16 16 14 12 11 11 10 10 10 9 9 9 9 10 11 12 12 12 13 14 14 14 15 16 17 18 18 17 17 17 17 17 17 17 17 17 17 17 17 17 16 16
23 22 22 21 20 19 17 17 16 14 14 13 12 11 11 10 10 10 10 10 11 13 13 13 13 14 15 16 17 17 18 18 19 18 18 18 19 19 19 19 19 19 19 19 19 18 18 18 17
23 23 22 21 21 19 17 16 15 15 14 14 13 12 11 11 12 12 12 12 13 14 14 15 16 17 17 18 18 19 19 19 19 19 19 20 20 20 20 20 20 20 20 20 20 20 19 19 19
24 23 23 22 21 19 18 17 16 15 14 14 13 13 13 13 12 13 13 13 14 15 16 17 18 19 19 19 19 20 20 20 21 20 20 21 21 21 21 21 21 21 21 21 21 21 20 21 21
24 24 23 22 21 20 19 18 17 17 15 14 14 14 14 14 14 14 14 15 15 16 17 18 19 20 20 20 20 21 21 21 21 21 22 22 22 22 22 22 22 22 22 22 22 22 22 22 23
23 23 23 22 21 21 20 18 18 17 16 15 15 15 15 15 15 14 14 15 16 17 18 19 19 20 21 20 20 21 21 21 21 21 22 23 23 24 23 23 23 23 23 23 23 24 24 24 24
22 22 22 22 21 21 20 19 18 17 15 15 15 15 15 15 15 15 16 16 18 19 20 20 20 21 21 21 21 21 21 21 22 22 22 22 23 24 24 24 24 23 23 23 24 24 25 25 25
20 20 21 21 21 20 20 20 18 18 17 16 16 16 15 16 15 16 16 17 18 19 19 20 20 21 21 21 21 21 21 21 23 23 23 23 23 24 25 25 25 24 24 24 25 25 25 26 26
19 19 20 20 20 19 19 19 18 17 16 16 16 16 16 17 16 15 16 17 18 19 20 21 20 21 21 21 22 22 22 22 22 23 23 24 24 24 24 25 25 25 24 24 25 25 25 26 27
18 18 18 18 18 18 18 19 17 16 16 16 16 16 17 17 18 17 18 19 19 19 19 19 20 20 20 21 22 22 22 22 23 23 24 24 24 25 25 25 26 26 26 26 26 25 26 26 27
15 14 16 17 17 17 17 17 18 17 16 16 16 17 18 19 19 18 18 19 20 19 19 20 20 20 21 22 23 24 24 23 24 24 25 25 26 26 26 27 27 27 27 27 26 26 26 27 27
14 14 15 16 16 16 16 17 17 17 17 17 18 19 19 19 20 20 20 20 21 21 21 21 21 21 22 23 24 24 24 24 24 25 26 27 27 27 27 28 29 29 29 28 27 28 28 28 28
14 14 14 15 15 15 15 16 17 18 18 19 19 20 20 21 21 21 22 22 22 21 22 21 21 22 22 23 23 24 24 25 26 26 27 28 29 29 29 29 30 30 30 29 28 29 29 29 28
13 13 14 15 15 15 16 16 18 19 19 19 20 20 21 21 22 22 21 21 21 22 22 22 22 23 24 24 24 25 25 26 27 28 28 29 30 31 31 31 31 30 30 30 30 29 30 30 30
11 12 13 14 15 16 16 17 19 19 20 20 20 21 22 22 21 21 22 22 22 22 22 22 22 23 24 25 25 25 26 27 29 29 28 29 29 30 31 31 31 31 30 30 30 30 30 30 30
11 13 14 14 14 15 16 15 18 19 18 19 20 21 22 22 23 23 23 23 23 23 23 23 23 24 25 26 26 26 27 28 28 28 27 28 29 30 30 31 31 31 31 30 30 30 30 29 30
12 12 13 14 15 15 16 16 16 18 18 19 20 21 22 23 23 23 23 23 23 23 22 22 23 24 25 25 26 27 27 28 28 29 29 29 30 29 30 30 30 30 30 30 30 30 29 29 28
11 10 11 12 13 13 15 16 16 18 19 20 21 22 22 23 23 23 23 23 23 23 22 23 24 24 24 25 26 27 28 28 29 29 28 28 29 29 29 29 29 29 29 29 29 29 28 29 28
10 10 9 10 11 12 16 17 17 18 19 19 20 21 21 22 22 23 23 23 23 24 24 24 24 24 25 26 27 27 27 28 28 28 28 28 28 29 28 29 28 28 28 28 27 27 27 27 28
11 10 10 12 13 14 17 17 17 17 18 18 19 20 21 21 21 22 22 23 23 24 24 24 25 26 26 27 27 28 27 27 26 27 26 27 26 26 26 26 26 26 26 25 25 25 25 25 26
12 13 13 14 15 15 16 17 17 17 18 18 19 20 21 21 22 22 23 23 23 23 24 25 26 27 27 28 28 27 26 24 25 25 24 25 25 25 24 24 24 23 23 24 24 24 24 23 23
14 15 15 14 15 16 16 17 18 19 19 19 20 20 21 21 22 22 23 24 24 24 24 25 26 27 27 27 26 26 24 23 23 23 23 23 23 22 22 22 21 21 21 21 22 22 22 22 21
16 16 16 16 17 16 16 17 19 20 19 19 20 20 20 21 22 22 23 23 24 24 24 25 26 26 26 25 23 23 22 22 22 22 22 22 21 20 20 20 19 19 19 19 19 19 20 20 19
16 16 17 17 17 18 18 18 19 19 19 19 20 20 20 21 21 22 22 22 22 23 24 25 24 24 23 23 21 21 21 21 20 20 19 19 19 19 19 18 17 17 17 17 17 17 17 17 16

GEFSSGP_500_meanwind_174.txt.gz
Wind_Speed
16 15 13 12 10 7 3 5 8 8 10 10 9 8 7 7 6 7 6 6 6 7 7 7 8 9 9 9 10 10 11 11 12 12 12 12 12 11 11 11 11 11 11 10 10 10 10 9 9
17 16 15 13 11 7 5 10 10 11 11 11 10 9 8 8 8 8 8 8 7 7 8 8 9 10 10 11 11 12 12 13 13 13 13 13 12 12 12 12 12 12 11 11 11 11 11 10 10
18 17 16 15 11 8 10 13 13 13 12 12 11 10 9 9 9 9 10 9 9 9 9 9 10 11 11 12 12 13 13 13 13 14 14 14 14 14 14 13 13 13 12 12 12 12 12 11 11
20 19 17 15 12 10 14 15 15 15 14 13 13 11 11 10 10 10 11 11 10 10 10 11 11 12 12 12 12 13 14 14 14 15 15 15 14 14 14 14 14 14 13 13 13 13 13 13 13
20 19 17 15 12 14 16 16 17 17 15 14 14 13 12 12 11 11 12 12 11 11 12 12 12 12 13 12 13 14 14 14 15 15 15 15 16 16 15 15 15 15 15 14 15 15 15 15 14
20 18 17 14 14 17 18 18 17 18 16 16 15 14 13 12 12 12 12 12 13 13 13 13 12 13 14 14 14 14 15 16 16 17 17 17 17 17 17 16 16 16 16 16 16 16 16 16 16
20 19 16 13 15 19 19 19 17 17 16 17 16 14 14 14 13 14 14 14 14 14 14 14 14 15 15 15 15 16 17 18 19 19 20 19 18 18 17 17 17 17 17 17 18 18 18 18 17
21 20 17 15 17 20 21 20 21 18 19 18 16 15 15 14 14 14 15 15 14 14 15 16 16 16 16 17 17 18 19 20 21 21 21 20 19 19 18 18 18 18 19 18 19 19 19 19 19
20 20 17 16 19 20 21 19 21 20 20 18 17 17 14 15 15 16 16 16 15 15 16 16 16 17 18 19 20 20 20 21 22 22 22 21 21 20 20 20 19 19 19 19 20 20 20 20 20
20 18 17 19 20 20 20 20 20 20 20 19 18 17 15 15 15 15 16 16 16 17 17 18 18 19 19 20 20 21 21 22 23 23 23 23 22 22 21 21 20 20 20 21 21 21 21 21 21
19 19 20 21 22 21 20 20 18 18 19 19 17 16 16 14 14 15 16 16 17 18 19 19 19 20 21 21 22 23 22 22 23 23 23 23 23 22 22 21 21 21 22 21 21 22 22 22 22
21 20 23 22 23 22 19 19 18 19 20 18 18 16 14 14 15 15 16 16 17 18 19 20 21 21 22 23 23 23 23 23 23 23 23 23 23 23 23 22 22 23 23 22 22 22 22 22 23
19 20 22 21 20 21 20 19 18 19 20 18 18 18 18 16 16 16 16 17 17 18 19 20 21 22 23 24 24 24 24 24 24 23 24 24 24 24 24 24 24 24 24 24 24 24 24 23 24
16 17 19 18 19 18 18 18 18 18 17 17 18 18 18 17 17 17 17 18 18 19 20 21 21 23 24 25 24 25 25 25 25 25 24 24 25 24 24 25 25 25 24 24 24 25 25 25 25
14 15 16 17 17 17 17 17 17 17 17 18 19 18 18 18 18 18 19 19 20 20 21 22 23 24 25 26 26 25 25 26 26 26 26 25 25 26 26 27 27 27 27 27 27 27 27 27 27
11 12 12 14 15 15 16 17 17 19 18 18 19 19 18 19 20 20 20 20 21 22 23 23 24 25 26 26 25 26 25 25 27 27 27 26 27 27 27 28 28 29 30 29 29 28 28 29 29
8 10 11 13 13 14 15 16 16 16 18 17 17 19 19 20 21 22 22 23 23 24 24 24 24 25 25 25 26 26 26 27 27 26 26 27 27 28 29 29 30 31 31 31 31 30 30 29 29
9 10 10 11 12 13 15 16 17 18 18 19 19 20 20 21 22 23 24 24 24 24 24 25 25 25 26 26 26 27 27 27 27 27 27 27 29 29 30 30 31 31 32 32 32 32 31 30 30
10 9 10 12 13 13 14 16 18 19 18 19 20 20 21 22 23 24 24 25 25 25 25 25 25 26 27 28 28 28 26 27 27 28 28 29 29 30 31 32 32 32 32 33 33 33 32 31 30
7 9 10 12 14 12 14 15 16 19 19 19 20 22 23 23 24 24 25 25 26 26 26 27 27 27 28 28 28 27 26 27 27 28 29 29 30 31 32 32 32 33 32 32 32 32 32 31 31
9 10 10 11 13 13 13 14 15 17 20 20 21 23 25 25 24 25 26 26 26 26 26 27 27 27 28 28 27 27 27 28 28 29 29 30 31 32 32 33 33 33 32 31 31 32 32 30 30
9 11 12 12 12 13 12 15 16 18 20 22 23 24 24 25 25 26 26 25 26 26 26 27 27 27 28 27 27 28 28 29 29 30 30 31 32 31 31 32 32 32 32 31 31 31 30 29 29
9 11 11 10 11 13 13 16 17 18 21 22 23 25 25 26 26 26 26 25 25 25 25 26 27 27 27 26 27 29 29 29 29 30 30 30 30 30 31 31 31 31 30 30 30 29 28 27 28
10 10 10 11 13 16 15 16 18 19 21 23 25 27 27 27 26 27 27 26 26 26 26 26 26 26 26 26 27 28 29 29 29 29 30 29 29 29 30 30 30 29 28 27 26 26 26 26 26
10 10 11 13 15 16 13 14 17 20 22 23 26 26 27 27 27 27 27 26 26 26 26 26 27 26 26 27 27 28 29 29 29 29 29 28 28 28 28 28 28 27 26 24 24 23 23 24 24
10 11 13 15 15 15 16 16 19 20 23 24 26 27 27 27 27 26 27 26 26 26 26 26 26 26 27 28 28 29 29 29 29 29 28 28 27 27 27 27 26 25 24 23 22 22 22 23 22
10 11 14 16 17 17 16 17 22 22 25 26 25 25 26 26 26 26 26 26 26 26 26 26 26 26 27 28 28 29 29 29 28 28 28 28 27 27 26 25 24 24 23 22 21 21 20 20 20
11 12 14 16 18 18 17 20 22 23 25 27 25 25 25 26 27 26 26 25 25 25 25 26 26 27 27 27 27 28 28 28 28 27 27 27 27 26 25 24 23 23 22 20 20 19 19 19 19
14 14 16 17 17 19 21 23 24 26 26 26 25 25 26 27 27 26 25 25 25 25 26 25 26 26 26 27 27 27 27 27 27 26 26 25 25 24 23 23 22 21 19 19 18 17 17 17 17
15 16 17 18 19 20 23 25 25 27 25 25 26 26 27 27 26 26 25 25 24 25 25 25 25 26 26 26 26 25 25 25 24 24 23 22 21 21 20 19 19 18 17 17 17 17 16 16 17

GEFSSGP_500_meanwind_180.txt.gz
Wind_Speed
18 17 16 14 13 12 10 9 9 8 7 5 4 4 4 4 4 4 4 4 5 5 5 5 6 7 7 8 8 9 10 10 11 11 12 13 14 14 15 15 14 14 14 14 13 13 13 13 13
20 19 18 17 15 14 12 11 10 9 8 6 5 5 5 5 5 5 5 6 6 6 6 7 8 8 8 8 9 10 10 11 11 12 13 14 14 15 15 15 15 15 15 14 14 14 14 14 14
22 20 19 18 16 15 14 13 12 11 10 9 7 7 6 6 6 7 8 7 8 8 8 8 9 9 9 9 10 11 11 12 12 13 13 14 15 16 16 16 15 15 15 15 15 15 15 15 15
23 21 20 18 17 16 15 14 13 11 11 9 8 8 8 7 7 8 9 8 9 9 9 9 9 10 10 11 11 11 12 13 13 14 15 15 16 16 16 17 17 16 16 16 16 16 16 16 16
23 22 20 19 18 17 16 15 14 13 14 12 10 9 10 9 8 9 9 10 10 9 10 10 10 11 11 11 12 13 13 14 15 16 16 17 17 17 17 18 17 17 17 17 17 17 17 17 17
23 22 21 19 18 19 16 14 15 16 15 11 11 12 11 10 9 10 11 11 10 10 11 11 11 12 12 13 14 14 15 15 16 16 17 18 18 18 18 18 18 18 18 18 18 18 18 18 18
23 22 21 20 19 18 15 14 14 16 16 14 12 11 10 10 9 10 12 11 11 11 11 12 12 12 13 14 14 15 15 16 16 17 18 18 19 19 19 19 19 19 19 19 19 19 19 19 19
24 23 22 19 18 17 15 14 15 16 15 14 13 12 13 13 12 11 12 11 12 12 13 13 13 13 14 15 15 16 17 17 18 18 19 20 20 21 20 20 20 19 19 20 20 20 20 20 20
23 23 21 19 19 18 17 17 17 17 17 15 13 14 14 14 14 12 12 13 13 13 13 14 14 15 15 16 17 17 18 18 19 20 20 21 21 21 21 21 20 20 20 20 20 20 20 20 21
22 21 20 20 20 19 18 18 19 18 17 15 14 14 14 14 14 14 14 12 12 13 14 15 16 16 16 17 18 19 19 20 20 21 22 22 22 22 22 21 21 20 20 20 19 20 20 20 20
21 20 19 19 19 19 20 19 19 19 18 16 15 14 14 15 13 13 14 14 14 14 15 16 16 16 17 17 18 19 20 21 21 22 23 23 22 22 22 22 21 21 20 21 21 21 21 21 21
20 19 19 20 19 20 20 19 18 17 16 14 13 14 14 14 14 14 16 16 15 16 17 17 16 17 18 18 19 20 20 21 22 23 23 23 22 22 22 22 22 22 22 22 22 22 22 22 22
18 18 18 18 19 18 19 18 18 16 16 14 14 14 14 15 16 15 16 16 15 16 17 17 16 17 18 19 20 21 21 22 23 23 23 23 23 23 24 23 23 23 23 22 22 23 23 23 24
16 17 17 18 18 17 17 17 16 16 15 14 14 15 14 14 15 16 17 17 16 17 18 18 18 18 19 19 20 21 22 22 22 23 23 24 24 24 24 24 24 24 23 23 24 25 25 25 25
14 15 14 15 15 15 16 17 16 15 14 14 14 14 14 14 15 16 17 17 17 18 19 20 19 19 20 21 21 21 22 23 23 23 23 24 24 24 25 25 25 25 24 24 25 26 26 26 27
11 13 12 13 15 15 17 17 16 15 15 16 15 13 13 14 16 18 18 18 19 20 20 21 21 21 21 22 22 22 23 24 24 24 25 25 25 26 25 26 26 26 26 26 26 27 27 28 28
10 11 11 12 13 15 16 15 14 14 14 15 14 13 14 14 16 17 18 19 20 20 20 21 22 23 23 24 24 24 24 24 25 26 25 26 27 27 27 26 27 27 26 27 27 28 29 28 28
10 9 10 11 11 13 15 14 14 14 15 14 13 13 13 15 16 18 19 20 20 21 21 21 22 23 24 25 25 25 25 26 27 27 27 28 28 27 27 28 27 27 27 27 27 28 28 28 29
7 8 9 10 11 12 13 14 14 15 15 14 14 15 14 15 16 19 19 20 20 21 23 23 23 24 25 25 25 25 26 27 27 27 27 28 28 28 28 29 28 28 28 28 29 29 29 29 29
7 8 9 9 10 12 13 14 15 16 16 16 16 17 15 15 16 18 19 21 21 23 25 25 24 25 25 25 25 26 26 25 26 26 27 28 28 29 29 28 28 28 29 29 30 29 29 29 29
7 8 8 8 10 11 13 14 16 16 17 17 17 17 16 16 17 17 19 21 23 24 24 24 25 25 25 25 26 26 26 25 25 26 26 26 26 27 28 27 28 29 30 29 29 28 28 28 28
5 7 8 8 10 12 14 16 16 16 16 16 16 17 18 18 19 19 20 21 22 23 23 23 25 25 25 25 25 25 25 26 26 26 26 25 26 27 27 27 28 29 28 28 28 28 27 26 26
5 7 9 10 12 13 13 16 16 17 18 16 17 17 18 19 19 20 21 23 23 24 24 25 25 25 25 25 25 26 26 27 27 26 25 26 26 26 27 27 27 27 26 27 27 27 26 25 25
8 10 10 10 12 13 12 14 14 15 15 16 18 18 18 19 19 21 23 24 24 25 26 26 26 25 25 25 25 26 26 27 26 26 26 26 26 26 26 25 25 25 25 25 25 24 24 23 22
9 12 12 13 14 14 14 17 16 15 16 17 17 18 18 20 21 21 23 25 25 25 26 26 26 25 25 25 26 26 26 26 26 26 26 25 25 25 25 25 25 24 25 24 23 23 22 21 20
10 12 13 15 15 15 16 17 16 16 16 16 17 18 19 20 22 23 24 25 25 25 25 25 25 24 24 24 25 25 25 26 26 26 26 25 25 25 24 24 24 24 23 23 22 21 20 19 19
11 13 13 15 17 17 17 16 16 16 16 17 18 19 19 21 23 23 24 24 24 24 23 23 23 24 23 23 23 24 25 25 25 25 24 24 24 23 23 23 23 22 22 22 21 20 20 19 18
14 15 16 17 18 19 17 16 17 17 19 19 19 19 21 22 23 23 24 23 22 22 21 22 23 22 22 22 22 23 24 25 24 24 24 23 22 22 21 20 20 20 21 20 20 19 18 17 16
17 18 18 19 19 20 20 18 18 20 20 20 21 22 23 23 23 22 22 22 21 20 21 21 20 20 20 21 22 23 24 23 23 23 22 21 20 20 20 19 19 19 19 19 18 18 16 16 15
18 19 20 22 21 21 23 22 20 20 21 21 22 22 22 22 21 20 20 20 19 19 19 19 19 19 19 20 21 22 22 22 21 21 20 19 19 19 19 18 17 17 17 17 17 16 15 14 14

GEFSSGP_500_meanwind_186.txt.gz
Wind_Speed
19 18 17 16 15 13 11 10 10 9 7 6 5 4 4 3 2 1 2 3 4 5 5 6 7 8 8 8 8 8 9 10 10 11 12 13 13 14 14 15 15 15 16 16 16 16 16 16 16
20 19 18 17 16 13 12 12 11 9 8 7 6 6 5 4 3 2 3 4 5 6 6 7 8 8 9 9 9 10 10 11 12 12 13 14 14 15 15 16 16 17 17 17 17 17 17 17 16
22 21 20 18 16 14 13 13 12 11 10 9 7 6 6 6 4 4 5 6 6 6 8 9 9 9 10 10 11 11 11 12 13 13 14 15 15 16 17 17 18 18 17 17 17 17 17 17 17
23 22 22 19 17 15 15 14 13 12 11 10 9 7 8 7 6 7 7 7 7 8 9 10 10 10 11 11 12 12 12 13 14 14 15 16 17 18 18 18 19 19 18 18 19 19 19 18 18
24 23 22 20 18 16 16 16 15 13 11 10 10 10 10 10 8 8 9 9 9 9 10 11 11 11 12 12 12 13 13 14 15 16 16 17 18 18 19 19 19 19 20 20 20 20 20 19 19
24 24 23 20 18 18 18 18 16 14 12 11 11 11 11 10 9 10 10 10 10 11 11 12 11 11 12 12 13 14 15 15 16 17 17 18 19 19 19 19 20 20 21 21 21 21 21 20 21
24 24 22 20 19 18 18 18 17 15 15 13 12 12 12 11 12 12 12 11 11 12 12 13 12 12 13 14 15 15 16 16 17 18 18 19 19 19 20 20 21 22 22 22 21 21 21 22 22
24 23 22 20 20 19 19 18 18 16 15 13 13 13 12 12 12 13 13 13 13 14 14 14 14 14 14 15 16 16 17 17 18 19 19 20 20 20 21 22 22 22 22 22 22 22 22 22 23
23 22 21 20 19 19 19 18 18 17 15 14 14 14 14 13 13 14 15 15 15 15 15 15 15 15 15 16 17 17 18 18 19 19 20 21 21 21 22 23 23 23 23 23 24 23 23 23 23
21 21 20 20 19 19 19 19 18 17 16 15 14 14 13 14 14 14 16 16 16 16 17 17 16 16 16 17 17 18 18 19 20 20 21 22 22 22 23 24 24 24 24 24 24 24 24 25 25
19 19 20 20 19 20 19 19 18 17 17 16 15 15 14 14 14 14 15 15 17 17 17 18 17 17 17 17 18 18 19 20 21 21 22 22 22 22 23 24 24 25 25 25 25 24 25 25 25
18 17 19 19 19 19 18 18 18 17 16 16 16 16 16 15 14 15 15 16 17 17 18 17 18 17 17 18 19 19 20 21 21 22 22 22 23 24 24 25 26 26 26 26 26 25 26 26 27
16 16 18 19 19 18 18 17 18 17 16 15 15 15 15 14 14 15 15 16 17 18 18 20 19 18 18 19 20 20 21 22 22 23 23 23 24 25 25 26 25 26 26 26 27 27 28 28 28
14 15 16 17 18 17 17 17 17 15 14 14 15 15 15 15 16 16 17 18 19 19 18 19 18 19 19 19 20 20 21 22 23 24 24 25 25 26 26 26 27 27 26 27 28 28 29 29 29
12 14 15 15 16 17 18 16 16 14 15 14 14 14 15 15 15 16 17 18 19 19 19 20 19 19 19 20 20 20 22 23 24 24 25 25 26 27 27 27 28 28 28 28 28 29 29 30 31
11 12 13 13 15 17 17 16 16 15 16 16 15 15 15 16 16 17 18 19 19 19 19 20 21 21 20 21 22 22 23 24 25 25 26 26 27 28 28 28 28 29 29 29 29 29 30 31 31
9 10 11 13 15 16 16 16 16 16 17 17 17 16 17 17 18 18 18 19 19 19 20 20 21 22 22 23 23 23 25 25 25 27 27 27 27 28 29 29 29 29 29 30 30 30 31 31 31
9 10 10 12 14 15 15 15 16 17 18 17 18 18 18 18 18 19 18 19 19 20 20 21 22 22 22 23 25 25 25 25 26 27 27 27 28 29 29 29 29 29 30 31 31 31 31 31 31
9 10 10 12 13 14 15 16 16 18 19 19 18 18 19 19 19 19 19 20 20 21 21 22 23 23 23 25 25 26 27 27 28 27 28 28 29 29 29 30 29 30 31 31 31 31 31 31 31
9 9 10 11 13 14 16 17 17 18 18 18 19 19 20 21 19 19 21 21 21 22 22 23 23 24 24 25 26 26 28 28 28 27 28 29 29 29 30 29 29 30 30 31 30 30 30 30 30
9 10 11 12 13 15 16 16 17 17 17 18 19 19 19 20 19 19 19 20 21 22 23 23 24 25 25 26 27 27 27 27 28 28 28 29 30 30 29 29 29 29 30 29 29 29 29 29 29
10 11 12 13 13 14 15 15 15 16 16 17 17 17 18 18 19 19 19 19 21 22 23 24 24 25 24 25 26 27 27 27 28 28 28 29 29 28 28 29 29 29 29 29 28 28 28 28 28
11 12 12 12 12 13 14 17 15 16 16 16 17 17 18 18 19 20 20 21 22 23 24 25 25 25 25 25 26 28 28 28 27 27 28 28 27 27 28 28 28 28 28 28 28 27 26 26 26
9 10 11 11 12 12 14 15 15 15 16 17 17 17 18 19 20 21 21 22 22 23 24 24 25 25 26 26 26 27 28 27 27 27 27 27 27 27 26 27 27 27 27 28 27 26 25 25 25
10 11 12 13 13 14 15 15 15 15 16 16 16 16 16 17 18 20 21 21 22 23 23 24 25 25 25 24 25 26 26 26 26 26 27 27 26 26 26 26 26 26 26 26 26 26 26 26 25
12 13 15 17 17 17 17 16 15 15 16 16 16 15 15 15 17 19 19 19 20 21 22 23 24 23 23 23 24 25 25 25 25 26 26 26 25 25 25 25 25 25 25 25 25 25 26 25 25
14 14 16 18 20 20 19 16 15 16 15 15 15 16 16 16 17 18 18 19 20 21 22 22 22 21 22 22 22 23 23 23 24 24 25 25 24 23 23 24 24 23 24 24 24 23 23 22 22
16 17 18 19 21 21 19 17 17 17 15 15 16 16 17 17 18 19 18 19 19 19 19 19 18 20 21 21 21 22 22 22 23 23 24 23 23 22 22 22 22 22 22 22 22 21 20 20 20
17 18 19 20 21 22 21 19 19 19 18 17 18 18 18 18 17 17 17 18 18 18 17 16 17 19 20 20 21 20 20 20 21 21 22 22 22 22 20 20 20 20 20 20 18 18 19 19 18
19 19 20 21 22 23 23 21 19 20 20 19 19 19 19 18 18 18 17 17 17 17 17 17 17 18 19 19 20 19 18 19 20 21 21 21 21 21 20 19 19 18 18 18 17 17 17 17 16

GEFSSGP_500_meanwind_192.txt.gz
Wind_Speed
17 16 15 14 13 12 12 12 10 8 8 7 6 5 5 4 4 4 4 3 3 3 2 2 3 3 4 5 6 7 8 8 9 9 9 9 9 9 10 10 10 11 11 11 12 12 13 13 13
19 18 17 15 14 13 13 13 11 10 9 8 7 7 7 6 6 5 5 5 5 5 4 4 5 5 6 7 8 9 9 9 10 10 10 10 10 11 11 11 12 12 13 13 13 14 14 14 14
19 19 18 16 15 14 14 14 12 11 9 9 8 8 8 8 8 7 7 7 7 7 7 7 7 7 8 9 9 10 10 10 11 11 11 11 12 12 12 13 13 14 14 15 15 15 15 15 14
19 19 18 17 16 16 15 13 12 11 10 10 10 10 9 9 9 9 9 9 9 9 9 9 9 9 9 10 11 11 11 12 12 12 12 13 13 13 14 14 14 15 15 15 16 16 15 15 15
19 19 18 17 16 17 16 15 13 12 11 10 11 11 11 10 10 11 11 11 11 11 11 11 11 11 11 12 13 13 13 14 14 14 14 15 15 15 15 15 16 16 17 17 17 17 17 16 16
19 19 18 17 17 17 16 16 15 13 12 12 11 11 11 11 11 12 11 11 11 11 11 11 12 12 13 14 15 15 15 16 16 16 16 16 16 16 17 17 17 18 18 17 18 18 18 18 17
19 19 18 17 18 18 17 17 16 15 14 13 13 12 12 12 12 12 12 12 12 13 14 13 14 14 14 15 16 17 17 16 16 17 17 17 18 18 18 18 19 19 19 19 19 19 20 19 19
18 19 18 17 18 18 18 17 17 16 15 14 14 14 13 13 13 13 13 13 13 14 14 15 15 16 16 17 17 17 17 17 17 17 18 18 19 19 19 20 20 20 21 21 22 22 21 21 21
17 17 17 17 18 19 19 18 17 16 15 14 14 14 14 13 14 14 14 14 14 14 16 17 17 17 17 18 19 19 19 19 19 19 19 19 20 20 21 22 22 23 23 23 23 23 23 22 22
16 15 17 18 18 19 19 18 17 16 15 14 14 14 14 14 15 14 15 16 16 16 16 17 18 18 18 19 20 20 20 20 21 20 21 21 21 21 22 23 23 24 24 24 24 24 24 23 23
15 15 16 17 17 18 18 18 17 16 16 15 15 15 15 16 16 15 15 16 17 17 17 18 18 19 19 20 21 22 22 22 22 23 23 23 23 23 23 24 24 25 25 25 25 26 26 25 25
14 14 15 16 17 17 17 17 16 16 16 16 16 16 16 16 16 16 16 16 16 17 18 18 19 20 21 21 23 23 24 24 24 24 24 24 25 25 25 25 25 26 26 26 27 27 27 27 27
12 13 13 14 15 16 16 16 15 15 15 16 16 17 17 14 15 16 16 16 17 18 19 20 20 21 22 23 24 25 25 25 25 26 26 25 25 26 26 26 26 27 27 27 28 28 28 29 29
11 12 12 13 13 14 14 14 14 14 15 16 16 16 16 16 15 16 17 18 18 19 20 21 21 22 24 24 24 25 25 25 26 27 26 26 27 27 27 27 27 28 28 29 29 29 29 29 29
10 10 11 11 12 12 12 12 13 14 14 15 15 15 16 16 17 18 18 19 19 20 21 22 22 23 24 25 25 25 25 26 27 26 26 26 27 28 29 28 28 29 29 29 29 29 28 28 29
9 10 11 12 12 11 11 12 14 14 15 15 16 16 17 17 17 18 19 20 20 21 21 22 22 24 25 26 26 26 26 25 26 25 26 26 27 27 29 29 29 29 30 30 29 29 29 29 29
8 8 10 12 11 11 11 12 14 14 14 15 16 17 18 18 18 19 20 21 21 22 22 22 23 24 25 26 25 26 26 26 26 26 26 27 27 28 29 30 30 29 30 30 30 30 31 30 30
7 7 8 9 11 10 11 12 12 14 14 14 16 17 18 19 19 20 21 21 22 23 23 24 25 26 26 25 26 26 26 26 26 26 27 28 29 29 29 29 29 29 29 30 30 31 30 30 30
5 6 7 9 10 11 11 12 13 14 15 15 16 17 18 20 20 21 22 22 22 22 23 24 26 26 26 27 28 28 26 26 26 28 28 28 28 29 29 29 29 30 30 30 30 30 30 30 30
5 5 6 8 9 10 10 11 12 13 14 15 16 17 18 20 21 22 23 23 23 23 24 24 26 26 26 26 27 27 25 26 28 29 28 28 29 29 29 29 29 29 30 30 30 30 31 31 30
6 7 7 8 9 9 9 10 11 14 15 16 16 18 19 21 21 22 22 23 23 24 25 25 26 25 25 25 26 26 26 27 27 29 28 29 28 28 29 28 29 30 30 30 30 31 31 30 30
8 8 9 8 8 9 10 11 13 15 16 17 17 17 18 20 20 21 21 22 22 23 24 25 25 25 24 25 26 27 27 27 28 28 29 29 29 29 28 28 29 29 29 29 29 29 30 30 29
9 9 9 10 10 11 12 12 14 15 16 16 16 17 18 19 20 20 20 20 21 22 24 24 24 23 24 25 26 27 27 27 28 29 29 29 28 28 28 28 28 28 28 28 28 28 28 28 28
10 10 10 11 11 12 12 12 13 14 15 15 15 16 17 18 19 19 19 20 20 21 22 23 23 23 24 25 26 26 26 27 28 29 29 28 27 26 26 26 27 27 27 27 27 27 27 27 26
9 9 10 9 10 11 13 13 14 14 15 15 15 16 16 17 18 19 19 19 20 21 21 22 22 22 23 24 24 25 26 27 27 27 28 27 27 26 25 25 25 25 25 25 25 25 24 24 24
11 10 10 11 12 12 13 14 15 15 15 16 16 16 16 16 17 18 19 19 19 20 20 20 20 22 23 23 23 23 25 25 26 26 26 26 25 24 23 23 23 23 24 24 24 24 23 23 22
12 12 13 13 14 14 14 15 16 16 15 17 17 17 17 17 17 18 18 18 18 19 20 20 20 22 22 22 22 23 23 24 24 24 24 23 23 23 22 22 22 22 23 23 23 23 22 21 20
14 14 14 13 14 14 15 15 17 18 17 18 18 18 17 17 18 18 18 18 17 18 19 18 20 20 21 21 21 22 22 22 22 22 22 22 22 22 22 22 22 21 22 22 22 22 21 20 20
16 15 15 15 15 15 17 17 18 19 19 19 18 18 17 17 18 18 19 19 18 18 18 19 19 20 20 20 21 21 21 20 20 20 20 20 21 21 22 22 21 21 21 21 21 20 20 19 19
18 17 17 17 17 17 18 19 19 20 20 19 19 19 18 19 19 20 20 20 19 19 19 19 19 20 19 19 19 19 19 19 19 19 19 19 20 21 21 20 20 20 20 19 19 19 19 19 19

GEFSSGP_500_meanwind_198.txt.gz
Wind_Speed
13 13 13 11 9 7 6 6 6 9 10 11 9 10 10 10 10 9 9 9 8 8 8 8 8 9 9 10 10 10 10 10 11 11 12 12 12 12 12 12 12 13 12 12 12 12 12 13 13
15 14 13 13 10 8 6 6 9 13 12 12 12 11 11 11 11 11 11 11 10 10 10 10 10 11 11 12 11 11 11 11 12 13 13 13 13 14 14 14 14 14 14 14 14 14 14 14 14
15 14 14 12 10 9 7 8 11 13 13 13 14 12 12 12 12 12 12 13 12 12 12 12 13 13 13 13 13 13 13 13 14 14 15 15 15 15 15 15 15 15 15 15 15 15 15 15 15
15 14 14 12 11 10 12 12 13 14 14 14 14 14 14 13 14 13 13 14 14 14 14 14 14 14 14 14 14 15 15 16 16 16 16 16 16 16 16 16 17 17 17 17 17 17 16 16 16
16 15 13 11 11 11 13 13 14 15 15 15 15 15 15 14 14 14 14 15 15 15 15 14 14 15 15 16 16 16 16 17 17 17 17 17 18 18 18 18 18 18 18 18 18 18 18 17 17
16 15 13 12 11 11 13 14 14 16 17 15 16 15 16 15 14 15 16 16 16 15 15 15 15 16 16 16 17 17 17 17 18 19 19 19 19 19 19 19 19 20 20 20 20 19 19 19 18
15 15 13 11 11 13 15 15 15 16 18 16 15 16 16 15 16 16 16 16 16 16 16 16 16 16 17 17 17 18 18 19 19 20 20 20 20 20 21 21 21 21 20 21 21 21 20 20 20
14 13 13 12 11 13 16 15 15 16 18 18 17 16 16 16 16 16 15 16 16 16 16 17 16 18 18 18 18 19 19 19 20 21 21 22 22 22 22 22 22 22 21 21 21 21 21 21 21
13 13 12 11 11 14 15 17 18 19 19 18 17 17 16 16 16 16 16 16 16 16 17 17 17 18 19 18 19 20 21 21 21 22 23 23 23 23 23 23 23 23 22 22 22 22 22 22 21
11 11 11 12 14 14 16 18 18 19 18 17 17 17 17 17 16 15 15 16 17 17 18 18 19 20 20 19 20 21 22 22 23 23 24 24 24 25 24 24 24 24 23 23 23 23 23 23 23
11 11 10 12 13 14 15 16 16 17 16 16 17 17 18 18 17 16 15 16 18 18 19 20 20 21 21 20 21 22 22 23 24 25 25 25 26 26 25 25 24 24 24 24 24 24 24 24 24
11 11 11 12 13 15 16 17 15 15 16 16 16 16 17 16 16 16 16 17 18 19 20 20 21 22 22 22 22 23 23 23 25 25 26 26 26 26 26 25 25 25 26 27 26 25 25 26 25
11 10 11 11 12 15 15 13 13 15 16 16 15 14 17 16 16 16 17 17 18 19 20 21 22 22 23 24 24 25 25 25 25 25 26 26 27 27 27 27 27 27 27 27 27 28 27 26 26
8 10 11 11 10 12 12 12 11 13 14 15 15 14 15 16 16 18 19 19 19 19 20 21 22 23 24 25 25 26 26 26 26 27 26 26 27 28 29 29 28 28 28 28 28 28 27 26 26
5 6 7 9 10 11 13 12 11 13 14 14 15 14 16 17 17 17 18 19 20 21 21 21 22 23 23 24 25 26 27 27 28 28 28 27 28 29 30 30 30 29 28 28 27 27 27 27 26
3 4 7 8 10 12 13 13 13 13 14 15 14 15 16 18 18 17 18 19 20 22 22 22 23 24 24 25 25 26 27 28 29 29 28 28 29 30 30 30 29 28 27 27 27 27 27 28 27
4 7 9 9 10 12 13 13 14 13 13 13 14 15 16 18 18 18 18 19 20 22 23 23 24 24 25 26 27 27 28 28 28 28 29 29 30 30 30 29 28 28 28 27 27 27 28 29 29
6 9 10 11 11 12 14 14 16 14 15 14 14 16 18 18 19 19 19 20 20 22 23 25 25 26 26 26 27 28 28 29 29 28 28 28 29 30 30 29 29 29 28 28 29 29 29 30 30
7 10 11 12 11 12 14 15 15 15 15 16 16 16 18 19 19 20 20 21 21 22 23 25 26 26 26 27 26 27 28 28 28 28 28 29 29 30 30 29 29 29 29 29 29 29 29 29 29
9 11 11 11 11 13 15 15 15 16 17 17 16 16 19 20 20 22 22 21 22 22 24 25 25 26 26 26 26 27 27 27 28 28 28 29 30 29 29 29 29 29 28 28 29 29 28 28 28
10 11 11 11 11 13 14 14 14 14 16 19 18 18 17 19 20 21 22 22 23 23 24 25 25 26 26 26 26 27 27 28 28 29 29 30 29 28 28 29 29 29 28 29 28 27 28 28 28
11 10 10 10 11 12 12 15 14 15 16 19 19 19 18 19 19 21 22 23 23 23 24 24 25 25 25 26 27 27 27 28 28 29 29 29 28 29 29 29 28 28 28 28 28 27 27 27 27
10 9 9 10 10 12 12 14 15 17 18 20 20 19 18 20 21 21 21 22 22 23 24 25 24 23 24 25 26 26 26 27 28 28 28 28 28 28 28 28 28 28 28 28 27 27 27 27 27
10 10 10 10 10 14 13 13 16 18 20 22 24 20 18 20 20 20 20 22 23 23 23 23 22 23 24 25 25 25 26 27 28 28 27 27 27 28 27 28 28 28 27 27 26 26 27 27 26
11 12 12 12 13 15 13 14 20 20 21 24 23 20 20 18 19 20 22 24 24 23 23 23 24 24 24 24 24 25 25 26 26 27 27 27 27 27 27 27 27 26 25 25 25 25 25 25 25
11 11 11 13 14 15 14 16 20 20 23 23 22 22 21 21 20 20 21 22 23 23 23 24 23 23 23 24 24 24 25 25 26 26 26 27 26 25 25 25 25 24 24 23 23 24 24 24 24
11 11 12 14 15 15 14 17 20 21 22 24 23 21 20 21 21 21 22 22 23 23 23 24 23 24 24 24 24 24 25 25 26 25 25 25 25 24 24 24 25 24 24 24 24 25 24 24 24
12 13 13 13 15 16 15 16 21 23 24 25 24 22 21 21 21 20 21 22 23 24 24 24 24 24 24 25 24 24 25 25 24 24 23 24 24 23 23 24 24 23 24 24 24 24 24 24 24
13 14 15 16 16 16 18 18 21 24 24 24 24 24 23 23 24 22 23 23 24 24 24 24 24 24 24 24 24 24 24 24 23 23 23 23 23 23 22 22 22 22 23 23 23 24 24 23 23
15 15 16 17 17 17 19 19 21 24 23 23 23 24 24 23 22 23 24 24 24 24 24 23 24 24 24 24 24 23 23 23 23 22 22 22 22 21 21 21 22 21 22 22 22 22 22 22 22

GEFSSGP_500_meanwind_204.txt.gz
Wind_Speed
13 12 12 12 10 9 7 6 7 7 7 6 6 6 5 6 7 8 8 8 8 7 7 8 8 8 9 10 10 11 12 12 12 12 13 13 14 15 16 16 16 16 16 16 16 16 17 17 17
14 14 13 13 12 9 8 8 8 9 9 8 8 9 9 7 7 8 9 8 8 8 8 9 10 10 11 11 12 12 13 13 14 13 14 15 15 16 16 16 16 16 16 17 17 17 18 18 17
15 14 14 14 13 10 9 9 9 9 10 9 9 11 11 9 8 9 10 9 9 9 10 10 11 11 12 12 12 13 13 14 14 14 15 15 16 16 16 16 17 17 17 17 18 18 19 19 19
15 15 15 14 13 11 11 10 10 9 9 9 10 11 11 11 10 10 10 10 10 11 12 12 12 12 12 13 13 13 14 14 15 15 16 17 17 17 17 17 17 17 18 18 18 19 19 19 19
15 15 15 14 12 10 11 11 12 11 11 11 10 12 13 12 11 11 12 12 12 12 12 12 12 12 13 14 14 14 15 15 16 17 17 18 18 18 18 18 18 18 18 19 19 20 20 20 20
15 16 15 14 12 11 12 12 11 11 12 12 11 12 13 12 12 12 13 13 12 11 12 13 13 12 13 14 15 15 16 17 17 17 18 18 18 18 18 18 18 19 20 20 20 21 21 21 21
15 16 15 14 13 12 11 12 10 11 13 13 12 13 13 13 12 12 13 13 13 12 12 13 13 13 14 14 15 16 16 17 17 17 18 18 18 19 19 19 20 20 20 20 21 21 21 21 21
15 15 15 14 13 12 12 10 10 11 12 13 13 15 15 14 13 13 14 14 14 13 13 13 13 13 14 15 15 16 16 17 18 18 19 19 19 20 20 20 21 21 21 21 21 22 22 22 22
15 15 13 12 12 11 11 10 10 13 12 14 14 15 15 15 14 14 14 14 14 13 13 13 14 14 14 15 16 16 17 17 18 19 20 20 20 20 21 21 21 21 20 21 22 22 22 23 23
14 12 11 10 11 11 10 10 11 13 13 13 13 14 15 16 15 14 14 15 15 15 14 14 14 15 15 15 16 17 18 18 19 20 20 20 21 21 21 21 21 21 21 22 22 23 23 23 23
12 10 11 9 10 11 10 10 11 12 12 12 13 13 14 13 14 15 14 15 15 15 15 14 15 15 16 16 17 18 18 19 20 20 20 21 21 21 22 22 22 22 22 23 23 23 24 24 24
10 10 10 10 9 10 8 9 10 11 11 13 13 13 14 15 15 15 16 16 14 14 14 14 15 15 15 16 17 17 18 18 20 20 21 22 22 22 22 23 23 23 23 24 24 24 24 25 25
10 9 9 8 8 7 6 7 9 10 10 12 13 14 15 15 15 15 16 16 15 15 15 16 16 16 16 17 17 18 18 20 21 21 21 21 22 22 22 23 23 24 24 24 25 25 25 25 26
8 9 8 7 7 7 8 7 9 10 11 12 13 14 15 14 15 14 15 15 16 16 17 17 17 17 17 16 18 19 20 21 22 21 21 21 22 23 23 24 25 25 25 25 25 25 25 25 25
7 7 6 6 8 8 8 8 9 10 10 11 12 13 14 15 15 15 15 15 16 17 17 18 18 18 18 18 18 19 20 21 21 21 22 22 22 23 24 25 26 26 25 25 25 26 26 25 25
7 6 6 5 7 7 9 10 9 10 11 11 12 13 14 15 15 15 16 15 15 17 18 18 19 19 19 19 19 20 20 20 21 22 23 23 23 24 25 25 26 26 26 25 25 25 26 26 26
5 4 5 5 6 8 10 11 11 12 12 13 13 13 14 15 15 16 17 17 16 17 18 19 19 19 20 20 20 20 21 22 22 23 24 24 25 25 25 25 25 25 25 25 25 25 26 25 26
4 4 6 7 7 10 12 13 13 14 14 14 15 15 15 15 16 16 17 18 18 18 19 19 19 20 21 21 21 21 22 22 23 24 24 26 26 26 26 26 26 25 25 25 25 25 25 25 26
4 6 7 8 8 11 13 13 13 13 13 13 15 16 15 16 16 16 16 17 18 19 20 20 20 20 21 22 22 22 22 23 23 24 25 26 27 26 27 27 27 27 26 25 25 26 26 26 26
6 8 9 9 9 11 12 12 11 12 14 15 16 16 16 17 17 17 17 18 19 20 20 21 21 21 22 23 23 23 23 23 22 24 25 27 27 26 26 26 27 27 27 26 26 26 26 26 27
6 7 9 11 11 12 13 12 12 13 14 16 17 17 17 18 18 19 20 20 20 21 20 21 21 22 22 22 23 24 23 23 23 24 25 26 25 25 25 26 26 26 26 26 26 25 25 26 27
7 8 10 10 11 12 13 14 14 14 15 16 17 18 18 18 19 20 20 20 20 20 19 20 21 21 22 22 23 23 23 23 24 25 26 26 26 26 26 26 25 25 25 25 24 24 25 25 25
8 9 11 11 12 13 13 14 14 14 15 16 17 18 19 19 20 20 21 20 20 20 19 20 21 22 22 22 22 22 23 24 24 25 25 26 26 26 25 24 23 23 24 24 24 23 23 23 24
10 11 12 12 13 13 13 15 14 14 15 16 17 19 20 20 20 21 21 22 21 20 20 21 22 23 23 23 23 23 23 23 24 24 25 26 25 25 23 23 23 22 22 23 22 22 22 22 22
11 12 13 13 13 13 13 14 15 16 16 17 17 19 20 20 20 21 23 22 21 21 21 21 21 22 23 23 24 23 22 22 23 24 24 25 24 22 22 22 22 22 22 22 22 21 21 21 22
12 12 13 14 14 14 15 16 16 16 17 17 17 18 19 21 21 21 23 22 21 21 21 20 21 22 22 23 23 23 22 22 23 23 24 23 22 22 22 21 21 22 22 22 21 21 21 21 21
14 14 14 15 15 15 17 18 17 16 17 18 18 19 19 21 21 21 22 22 20 19 20 20 21 23 23 23 22 22 22 23 23 23 23 22 21 21 21 21 21 21 21 21 20 20 21 21 22
14 14 15 15 16 16 17 18 18 17 18 18 19 20 20 20 21 21 21 21 21 21 20 20 20 22 23 23 22 22 23 23 23 23 22 21 21 21 20 20 20 21 21 20 20 20 21 21 22
14 15 16 16 16 17 18 18 18 18 18 19 19 20 20 20 20 20 21 21 21 21 21 20 20 21 22 22 22 22 23 23 23 22 21 21 21 20 20 20 20 20 20 21 20 19 19 20 20
14 14 15 16 17 17 18 19 18 18 18 19 19 19 20 21 22 22 22 20 19 20 20 20 20 21 21 21 21 22 22 22 21 21 22 21 20 20 20 20 20 20 21 20 20 18 17 18 18

GEFSSGP_500_meanwind_210.txt.gz
Wind_Speed
12 12 12 11 10 9 8 7 7 7 7 5 4 4 5 4 4 5 5 5 5 6 6 6 6 8 9 9 9 10 10 11 11 11 12 12 13 13 13 14 14 14 14 15 15 15 16 16 16
13 13 13 13 12 10 9 9 9 8 8 6 6 5 6 6 6 6 6 6 6 6 7 7 7 8 9 10 10 10 11 12 12 12 13 13 14 14 14 15 15 15 15 16 16 16 17 17 17
15 14 14 14 13 10 9 10 10 9 9 8 8 7 8 8 8 8 7 7 7 7 8 9 9 9 10 11 11 11 12 12 13 13 14 14 15 15 15 15 16 16 17 17 18 18 18 18 18
16 16 15 14 12 11 10 11 11 10 10 10 9 8 9 9 9 9 9 8 9 9 10 10 10 10 11 11 11 12 12 12 13 14 14 15 16 16 16 17 17 18 19 19 19 19 19 20 20
16 16 16 14 12 11 11 12 12 12 11 10 10 9 9 9 9 9 9 9 10 10 10 10 11 11 11 11 12 12 13 13 14 14 15 15 16 17 17 18 18 19 20 20 20 21 21 21 22
16 15 16 14 12 12 12 13 13 13 11 11 10 10 9 9 9 9 10 9 10 10 10 11 11 11 11 12 12 12 13 14 14 15 16 16 17 18 18 19 19 20 21 21 21 22 23 23 24
16 16 16 14 13 13 13 13 13 12 13 12 12 11 11 11 11 11 12 11 11 12 11 11 12 12 12 13 13 14 14 15 16 16 16 17 18 19 19 20 20 20 21 22 23 23 23 24 25
17 17 16 14 13 13 13 13 13 13 12 12 12 13 12 12 11 12 12 12 12 12 12 13 13 13 14 14 14 15 16 17 17 17 17 18 19 20 20 20 21 21 22 23 23 23 24 24 25
17 17 16 15 14 14 14 13 13 12 12 12 13 14 13 13 12 12 12 12 12 13 14 14 14 15 14 14 15 16 17 17 17 17 18 19 19 20 20 21 21 22 22 23 23 24 24 25 25
15 15 15 14 14 14 13 12 12 11 11 12 13 13 12 13 13 12 12 13 13 14 14 14 14 14 15 16 16 17 18 18 17 18 19 20 20 21 21 21 22 22 23 23 24 25 26 26 26
14 14 13 13 14 13 13 12 11 10 11 12 12 11 10 11 12 12 12 13 13 14 14 15 15 15 16 17 17 18 18 18 18 19 20 20 21 21 22 22 22 23 23 24 25 26 27 27 27
11 11 11 11 12 12 12 12 11 11 11 11 11 11 10 11 12 12 12 13 13 14 15 15 15 16 17 17 18 18 19 19 19 20 21 21 21 22 23 24 24 24 25 25 26 27 27 28 28
8 8 9 10 10 11 11 11 12 12 12 12 12 11 12 12 12 12 13 14 14 15 15 16 17 17 18 18 18 18 19 20 20 21 21 22 22 22 24 24 25 26 26 27 27 27 28 29 29
7 7 8 9 10 11 11 12 12 12 12 13 13 13 13 13 13 14 14 15 15 16 16 16 17 18 18 18 19 19 20 20 21 21 21 22 22 23 24 25 26 26 27 28 28 29 30 30 30
7 7 8 9 9 10 11 12 12 11 12 12 12 13 14 14 15 15 15 15 16 17 17 18 18 18 18 19 19 20 20 21 22 21 21 22 23 24 24 25 26 26 27 28 29 31 31 31 31
6 7 7 9 10 10 11 11 12 11 11 11 11 12 14 15 16 17 17 17 18 18 18 19 19 18 18 19 19 19 20 22 22 22 23 23 24 25 25 25 26 27 27 29 29 30 31 31 31
7 7 8 9 10 11 11 11 11 11 12 12 12 13 14 16 17 18 18 19 19 19 19 20 19 19 19 19 19 20 20 22 23 23 23 24 24 25 26 26 27 28 28 29 29 29 30 30 31
6 8 9 10 11 11 12 12 12 12 13 13 13 14 15 16 18 19 20 20 21 21 21 21 21 20 19 18 19 21 22 22 22 23 24 24 25 25 26 27 27 28 29 29 29 29 30 30 30
7 9 10 10 11 12 12 12 12 13 14 14 15 16 16 17 18 19 20 20 21 22 22 23 21 20 18 19 20 22 22 22 23 23 24 24 25 26 27 27 28 28 29 29 29 29 28 28 27
7 8 10 11 12 13 13 13 13 14 15 15 16 17 17 18 18 19 20 21 21 22 24 23 21 20 20 21 21 22 23 23 24 24 25 25 26 27 27 27 28 28 29 29 29 28 27 26 26
7 9 10 11 12 13 14 14 14 14 16 17 18 18 18 19 20 21 22 23 23 23 23 22 20 21 22 23 23 23 24 23 24 25 25 25 25 26 26 27 27 28 28 28 27 27 27 26 26
6 7 8 9 11 12 13 14 14 15 16 18 19 20 20 20 21 22 23 23 24 24 23 21 21 22 22 22 23 23 24 24 24 24 25 26 26 26 27 27 28 28 28 27 26 25 25 26 26
7 7 8 9 10 12 13 14 14 15 17 18 19 20 21 21 21 22 23 23 23 23 22 22 23 24 23 23 23 23 24 23 24 24 25 26 26 26 26 26 27 27 26 26 25 24 24 25 24
9 10 10 11 12 13 13 15 15 16 17 18 19 20 21 21 21 22 22 22 22 23 23 24 24 24 23 23 23 23 24 24 24 25 25 25 25 25 25 25 25 25 24 24 24 24 24 23 23
11 12 12 13 14 14 15 16 16 17 18 18 19 20 21 21 21 22 21 22 22 23 24 24 24 24 23 24 24 24 24 24 25 25 25 25 25 24 24 24 24 24 24 24 24 23 23 23 23
13 13 14 15 16 16 16 17 18 19 19 19 19 21 21 21 21 21 21 22 22 23 24 24 24 25 24 24 24 24 25 25 25 25 25 25 24 23 23 23 23 23 23 23 23 23 23 23 23
15 16 16 17 17 17 17 17 17 18 18 18 19 21 22 22 22 21 21 21 22 23 23 23 23 25 25 25 24 25 25 24 24 24 24 24 23 23 23 22 23 22 22 22 22 22 21 22 22
15 16 16 17 18 18 17 17 17 18 18 18 19 20 21 21 21 21 21 22 23 23 23 23 23 22 23 23 24 24 24 24 23 23 24 23 22 22 22 22 22 22 22 22 22 22 22 22 22
16 17 17 18 18 18 18 17 18 19 20 19 19 20 21 21 21 21 22 23 22 22 23 23 22 22 22 22 21 22 23 23 23 23 23 22 21 21 22 22 22 22 22 22 22 22 23 23 22
16 17 17 18 18 17 17 17 17 18 19 19 20 21 20 20 21 22 23 22 22 22 22 23 23 22 22 21 21 22 22 22 23 23 23 22 22 22 22 21 21 21 21 21 22 22 22 21 21

GEFSSGP_500_meanwind_216.txt.gz
Wind_Speed
10 10 9 9 8 7 8 9 9 9 8 7 6 5 4 3 4 5 5 5 5 5 4 4 5 5 6 7 8 8 8 8 9 9 9 9 9 9 9 10 9 9 10 10 10 10 10 11 11
11 10 10 10 8 8 10 11 11 11 9 8 7 6 5 5 5 6 6 5 5 6 6 6 6 6 7 7 8 9 10 10 10 10 10 10 10 10 11 11 11 11 11 12 12 12 13 13 13
11 11 11 10 10 10 11 12 12 11 10 8 8 8 7 7 7 6 7 7 7 7 8 8 7 8 8 8 9 10 11 11 11 11 11 11 11 11 12 12 12 12 13 13 14 14 14 15 15
12 12 12 12 12 12 12 12 12 12 11 9 9 8 8 8 8 8 8 8 9 9 9 9 9 9 10 10 10 11 11 11 12 11 11 11 12 13 13 13 14 14 14 14 15 16 16 16 16
13 13 13 13 12 12 12 12 12 12 12 10 9 8 9 8 8 9 9 9 10 10 10 10 10 10 10 11 10 11 11 11 12 12 12 13 13 14 14 15 15 15 15 16 16 16 17 17 18
13 14 13 13 13 13 13 13 13 13 12 11 11 10 10 9 9 10 11 10 10 10 10 10 11 11 11 11 11 12 12 12 13 13 13 14 14 15 15 15 16 16 17 17 17 18 18 19 19
13 13 13 13 13 14 14 14 13 13 13 12 11 11 11 11 10 11 12 12 12 11 11 11 11 12 12 12 12 13 13 14 14 15 15 16 16 16 17 17 17 17 18 19 19 20 20 20 21
13 13 13 14 13 15 15 14 13 13 13 13 12 12 12 12 11 12 13 13 12 12 12 12 12 12 12 13 14 14 14 15 15 16 16 17 17 18 18 18 18 19 19 20 21 21 22 22 22
13 13 14 14 13 15 16 15 14 13 13 12 13 13 13 13 12 13 13 13 13 12 12 13 13 13 13 14 15 15 16 16 17 17 18 18 18 19 19 19 20 20 20 21 21 22 22 23 23
13 13 14 14 15 16 16 15 14 13 12 13 13 13 13 13 13 13 13 12 12 12 12 13 13 14 14 15 16 16 17 17 18 18 18 19 19 20 20 21 21 21 21 21 22 23 24 24 25
12 13 14 14 15 15 15 15 14 13 12 13 14 14 15 15 14 14 14 13 13 13 13 14 15 16 16 17 17 18 19 19 19 19 19 20 20 21 21 21 22 22 22 23 23 23 24 25 26
10 11 12 13 13 13 14 13 13 13 13 13 14 15 15 15 15 15 14 15 15 14 15 16 17 18 19 20 19 20 20 20 20 20 20 21 21 21 22 22 23 23 23 24 24 24 24 25 26
8 9 10 11 11 11 12 12 12 12 12 12 13 14 15 15 15 15 14 15 15 15 16 18 19 20 21 22 22 22 22 21 21 21 21 22 22 21 22 23 23 23 24 24 25 25 25 26 26
7 7 7 9 10 10 11 12 12 12 12 13 14 15 15 15 15 16 16 16 16 17 18 19 20 22 23 23 24 24 23 22 21 22 22 22 23 22 22 23 23 23 24 25 26 26 27 27 27
5 5 6 8 9 9 9 10 12 12 12 13 14 15 15 15 15 16 17 17 18 19 20 21 22 23 24 25 24 24 23 22 22 23 23 24 24 23 23 23 24 25 25 26 26 27 27 27 28
4 4 6 7 8 8 8 9 11 12 13 14 14 14 14 15 16 17 18 18 20 21 22 23 23 24 24 25 24 23 22 23 23 24 24 25 25 24 24 24 25 26 26 27 27 28 28 28 28
4 5 7 8 8 9 9 10 11 12 13 13 13 13 14 16 17 18 19 20 21 21 22 22 23 23 24 24 23 24 23 24 25 25 26 26 25 25 26 26 27 27 28 28 28 28 28 28 28
6 6 7 8 9 9 10 10 11 12 13 14 13 14 15 17 18 19 19 20 21 22 22 23 23 23 24 24 24 24 24 25 25 24 26 26 26 26 27 27 27 28 28 29 29 28 28 28 28
5 6 7 8 9 10 10 10 11 12 13 14 15 15 17 18 19 20 20 21 22 22 23 23 23 24 24 25 24 23 23 24 24 25 26 26 27 27 27 27 27 27 28 28 28 28 28 27 27
5 6 7 8 9 10 10 10 11 13 14 14 15 17 19 19 20 21 22 22 23 23 23 24 24 24 24 23 23 22 22 23 25 26 26 26 27 27 27 27 27 28 28 28 28 28 27 27 27
5 6 7 8 9 9 9 10 12 13 14 15 16 17 18 19 20 21 22 22 23 23 24 24 25 25 24 23 23 23 23 24 25 25 26 26 26 26 27 27 27 28 28 28 27 27 26 26 27
7 7 8 9 8 9 8 10 12 13 14 16 17 17 18 19 20 21 21 21 22 23 23 24 25 25 23 23 23 22 23 24 24 26 27 26 26 26 27 27 28 27 27 27 27 26 26 26 25
8 8 9 8 8 9 10 10 13 14 15 16 17 18 18 19 20 20 21 21 22 23 23 23 24 24 23 23 23 22 23 24 24 24 25 25 26 27 27 28 27 27 26 26 26 25 25 25 24
7 8 7 7 7 9 11 11 14 15 15 16 17 18 19 20 20 20 21 21 22 23 23 24 23 23 23 23 23 24 24 23 24 24 24 25 26 27 27 28 27 27 26 26 25 24 24 24 23
7 7 8 8 8 10 12 13 15 16 16 17 18 19 19 20 20 20 21 21 22 22 22 23 23 23 23 23 24 25 25 24 25 25 27 27 27 27 26 26 26 26 25 25 24 24 24 23 23
9 9 9 10 11 12 14 15 16 17 18 19 19 19 19 19 20 20 21 21 21 21 22 23 23 22 23 24 25 26 26 25 25 26 27 27 27 26 25 25 25 25 25 24 24 23 24 23 23
11 11 11 12 12 13 13 15 17 17 18 19 19 19 19 19 20 20 21 21 21 22 23 23 23 24 24 24 25 25 25 25 25 24 25 26 25 24 24 24 24 24 24 23 23 22 22 22 22
12 13 13 12 13 13 14 14 16 18 18 18 18 18 19 19 20 20 20 20 21 21 22 23 24 24 24 23 23 24 24 24 23 23 24 24 24 23 23 23 24 24 24 23 22 22 22 21 21
13 13 13 14 14 14 14 15 18 18 18 18 18 19 19 20 20 20 20 20 21 22 22 23 23 22 21 21 22 22 22 22 23 24 24 24 22 22 22 22 23 23 22 22 21 21 21 21 21
12 12 13 14 15 15 16 17 18 18 19 18 19 19 19 20 20 20 21 21 21 22 22 23 23 21 21 21 22 22 21 21 22 23 23 22 21 21 22 22 22 22 21 21 20 20 21 21 21

GEFSSGP_500_meanwind_222.txt.gz
Wind_Speed
7 6 6 6 5 3 2 2 6 8 8 9 11 10 11 11 10 10 9 10 9 9 9 9 10 10 10 10 10 10 11 11 10 11 11 11 11 12 12 12 11 11 11 11 11 11 12 12 13
8 7 7 7 6 5 3 4 9 11 11 11 12 12 12 11 11 10 10 10 10 9 9 10 10 11 11 11 11 11 11 11 11 11 12 12 12 12 12 12 12 12 12 12 12 13 13 13 14
8 8 8 7 8 6 3 9 13 13 13 13 13 13 13 12 12 11 10 11 11 10 10 11 12 12 12 12 12 13 12 11 12 12 13 13 13 13 13 13 13 13 13 13 13 14 14 14 15
8 9 9 8 8 7 8 12 13 14 15 14 13 13 13 12 13 12 11 12 12 11 12 12 13 13 13 13 13 12 12 12 12 13 14 14 14 14 14 14 14 14 14 15 15 15 16 15 15
9 10 9 10 9 8 11 14 15 17 15 13 13 13 13 13 13 13 13 13 13 13 13 13 13 13 13 13 14 12 13 13 13 14 14 15 15 15 15 15 15 16 16 16 16 17 17 17 17
10 9 8 9 8 10 14 16 16 15 14 14 14 14 13 14 14 14 14 14 14 14 14 14 13 14 14 14 14 14 15 15 15 15 16 16 16 17 16 16 17 17 17 17 17 18 18 18 18
11 9 8 9 9 11 17 18 17 16 14 14 15 14 15 15 16 16 15 14 14 14 14 14 14 14 14 14 14 15 16 16 17 17 18 17 17 17 17 18 18 18 19 19 19 19 19 20 20
10 10 9 10 11 13 17 19 18 16 14 14 16 15 16 17 16 15 15 14 14 15 15 15 15 14 15 15 16 17 17 18 18 19 19 18 18 18 19 19 20 20 20 20 20 20 20 20 20
10 10 9 10 11 15 18 18 17 17 17 16 16 16 16 16 15 15 15 15 16 16 16 16 16 16 17 17 18 18 19 20 21 21 20 20 20 20 20 20 21 21 21 22 21 22 21 21 21
9 10 10 12 14 16 18 18 17 17 16 14 15 15 16 16 16 16 16 16 17 17 17 17 18 18 18 19 20 20 21 22 23 23 22 22 21 21 21 21 21 22 23 23 24 23 23 22 22
9 11 12 13 15 17 18 17 16 17 15 15 15 15 16 16 17 17 17 17 17 18 18 18 19 19 20 20 21 22 23 23 23 24 23 23 23 22 22 22 22 23 24 24 24 24 24 24 24
7 8 10 12 15 16 15 15 15 16 14 15 16 16 17 17 18 18 18 18 19 19 19 19 19 19 20 21 23 23 24 24 24 24 24 24 24 23 24 23 24 24 25 24 24 24 24 25 26
7 8 9 11 13 14 14 14 14 15 15 15 16 16 16 16 16 17 19 19 19 19 19 20 20 20 21 22 23 24 24 25 25 26 26 25 24 24 25 26 26 26 25 25 25 26 26 27 27
7 9 10 11 12 14 15 15 14 15 16 15 15 16 16 16 16 17 19 19 19 20 20 20 21 21 22 22 23 24 25 25 26 26 27 26 25 26 26 27 26 27 27 27 27 27 27 27 28
6 8 8 9 12 14 14 14 15 16 16 16 15 15 16 16 17 18 18 19 19 20 20 21 21 22 22 22 23 24 25 25 26 26 27 26 26 27 27 27 27 27 28 28 28 28 28 28 28
5 6 7 9 10 11 12 12 14 15 16 16 16 15 16 17 17 18 19 19 19 19 20 21 21 22 23 24 24 24 25 25 25 26 26 27 27 28 28 28 28 28 28 29 29 29 29 29 28
4 7 7 9 11 10 10 10 14 14 14 14 15 16 17 18 19 18 19 19 19 19 21 22 23 23 23 24 25 25 25 25 25 26 26 27 28 28 28 29 29 28 29 30 30 29 29 28 28
6 6 6 9 10 9 10 12 13 14 13 14 15 16 18 18 19 19 20 20 20 20 21 23 23 24 24 25 25 27 27 26 26 27 27 28 28 28 28 28 28 29 29 30 30 29 28 28 28
6 8 6 7 9 9 11 12 13 13 13 14 16 17 17 18 19 19 20 20 21 22 23 23 24 25 25 26 26 27 27 27 27 28 27 28 28 28 28 27 28 30 31 30 29 28 28 28 28
6 7 6 7 10 11 11 13 14 12 14 15 17 18 19 20 20 21 20 21 21 22 23 24 25 26 26 27 27 28 28 28 28 28 27 27 28 28 27 29 29 29 29 28 28 28 28 29 29
5 5 6 9 11 12 12 13 14 14 15 16 18 19 20 21 21 22 22 23 24 24 24 25 25 26 27 27 27 27 28 28 28 29 29 29 29 28 28 28 28 28 29 28 27 28 28 29 28
5 7 7 9 11 11 11 13 14 15 16 17 18 18 20 21 22 23 24 24 24 24 25 25 26 26 26 26 27 27 27 27 28 28 28 28 29 28 28 28 28 29 29 28 28 28 29 29 28
7 8 9 10 10 10 11 14 14 15 17 18 17 18 20 22 23 23 23 24 24 24 24 24 25 25 25 25 26 26 27 27 27 27 27 27 27 27 27 29 29 29 28 29 29 29 29 28 27
9 9 8 8 8 11 12 14 15 15 17 18 19 19 21 23 24 24 24 24 24 24 24 24 25 25 24 25 25 26 26 26 26 26 26 27 26 26 27 28 28 28 28 27 27 27 27 26 27
9 9 9 9 10 10 11 13 15 17 18 19 21 21 22 24 25 25 25 25 25 25 25 24 24 24 24 24 24 25 26 26 26 26 25 26 25 25 26 27 27 27 26 25 26 26 26 26 25
9 9 12 12 12 12 13 14 16 17 18 20 22 22 23 24 24 25 25 25 25 25 25 24 24 24 24 24 24 25 25 25 25 25 25 25 25 25 25 25 24 24 24 24 24 25 25 24 24
10 9 10 12 11 11 13 15 17 18 20 21 23 23 23 24 24 24 25 25 24 24 23 24 24 24 24 25 25 24 24 25 25 24 24 24 24 25 25 24 24 24 24 23 24 24 24 24 24
10 11 11 12 13 13 11 14 19 20 22 23 24 24 24 24 24 24 23 23 23 23 23 24 24 24 25 25 25 25 24 24 24 23 23 22 23 23 24 23 23 22 22 23 24 24 25 25 25
11 11 12 12 12 14 14 16 20 21 22 24 24 24 24 24 24 23 22 22 22 22 23 24 24 25 25 26 25 24 24 23 22 23 23 22 23 23 23 23 23 22 22 22 23 23 24 24 24
11 11 12 13 13 14 15 16 19 20 22 22 23 23 23 23 23 23 23 23 23 23 23 24 24 25 26 25 24 23 22 22 22 23 22 23 23 23 23 23 23 22 22 23 24 24 25 25 24

GEFSSGP_500_meanwind_228.txt.gz
Wind_Speed
8 8 8 7 6 5 4 4 4 4 4 6 8 10 12 11 10 9 9 8 8 8 6 6 7 7 7 8 8 9 9 9 9 10 11 11 12 13 13 14 14 14 14 14 14 14 14 14 14
10 10 10 9 7 6 6 6 6 6 6 7 9 12 13 12 10 9 9 9 8 7 7 7 7 8 8 8 9 9 10 10 11 11 12 12 13 14 14 15 15 15 15 15 15 15 15 15 15
11 11 11 10 9 8 8 8 7 7 7 8 9 12 13 11 9 9 10 10 9 8 8 9 9 9 9 10 9 10 11 11 12 12 13 13 14 15 15 16 16 16 16 16 16 16 16 17 17
12 12 12 12 10 10 10 10 9 8 9 9 11 12 13 12 12 12 11 10 9 9 9 10 11 11 11 11 11 11 12 12 13 13 14 14 15 15 16 16 17 17 17 17 17 17 17 18 18
12 12 12 12 11 11 11 11 10 9 10 12 12 13 14 14 13 12 12 11 10 10 11 12 12 12 13 13 13 13 13 14 14 14 15 15 15 16 16 16 17 17 18 18 18 18 19 19 19
12 12 12 11 11 12 13 11 11 10 11 13 12 13 14 14 13 13 12 12 11 11 13 13 14 14 14 14 14 14 14 15 15 15 16 16 16 16 16 17 17 18 18 18 19 19 19 19 19
11 11 12 12 12 13 13 12 12 12 11 12 13 14 14 14 14 14 13 12 13 13 13 14 14 14 14 15 14 15 15 15 16 16 16 17 17 17 18 18 18 19 19 19 19 19 19 20 20
12 12 12 12 13 12 12 13 13 13 12 13 13 14 14 15 15 15 15 14 14 14 14 14 14 14 14 15 15 14 15 16 16 17 18 18 19 19 19 19 20 20 20 20 20 20 20 20 21
12 12 12 12 13 13 13 13 12 12 13 14 15 15 15 15 15 15 15 15 15 15 15 15 15 15 16 16 16 16 16 17 18 18 19 20 20 20 20 20 20 21 21 21 21 21 21 21 21
10 10 11 12 13 14 14 13 13 14 13 14 15 15 15 15 16 17 17 16 15 14 15 15 16 17 17 17 16 17 17 18 19 20 20 21 22 22 21 21 21 21 22 21 22 22 22 23 23
9 9 8 11 12 13 14 14 14 14 14 14 15 16 17 16 16 17 17 16 15 14 15 16 17 18 18 18 18 17 18 19 20 20 21 21 22 22 22 22 22 23 23 23 23 23 24 24 25
7 7 7 8 10 12 13 12 13 13 14 14 15 15 16 15 16 16 17 17 15 14 15 16 17 19 19 19 19 20 20 20 20 21 22 22 22 23 23 23 23 23 23 23 24 25 25 25 26
6 5 6 6 8 10 11 12 12 13 14 14 15 16 15 15 15 15 16 16 16 15 16 17 18 19 20 20 21 21 21 21 22 22 23 23 23 24 24 23 23 24 24 24 25 25 25 26 26
4 4 4 5 7 9 10 11 12 12 13 13 15 15 15 15 15 16 16 16 17 16 17 17 18 19 19 20 20 20 21 22 22 23 24 23 24 24 24 24 24 25 26 26 26 26 27 27 27
4 4 4 5 7 9 9 10 11 12 12 12 12 13 13 14 15 16 17 17 17 17 18 18 19 20 19 20 20 20 21 22 23 24 24 23 23 24 24 25 25 24 25 26 26 27 27 27 27
4 4 4 5 7 9 11 10 11 12 13 13 12 12 13 14 15 16 17 18 18 19 19 19 20 20 20 20 20 21 21 22 23 24 24 23 23 24 24 24 25 25 25 26 26 26 27 27 27
2 3 4 5 7 9 10 10 11 12 12 13 13 12 13 14 15 16 17 18 19 20 20 19 19 21 21 22 22 23 24 24 24 24 24 23 23 24 24 25 25 25 26 26 26 26 26 27 28
2 3 4 5 7 9 9 9 10 11 12 12 12 12 13 14 14 15 17 18 20 21 20 19 19 21 22 23 24 25 25 24 24 24 24 24 24 24 24 24 24 25 26 26 26 27 27 27 27
4 4 5 4 7 8 9 10 11 12 13 14 13 13 14 15 15 16 17 18 19 20 19 19 19 20 21 23 24 25 25 25 24 24 24 24 24 25 25 25 26 26 26 26 27 28 28 27 27
4 5 6 6 6 8 10 11 13 14 14 14 13 14 14 15 16 17 17 18 19 20 19 20 19 21 22 23 24 25 25 25 25 24 24 25 25 25 25 25 26 26 27 27 28 28 27 26 26
5 7 7 8 8 8 9 10 11 13 14 13 14 15 15 15 15 16 18 18 19 19 20 21 20 21 23 24 24 24 25 25 25 25 25 25 25 26 27 26 26 27 27 27 27 26 26 25 25
4 6 7 8 10 9 10 11 12 14 14 14 14 14 15 14 16 18 19 19 20 20 21 21 21 21 21 22 22 23 24 24 24 25 25 25 26 26 26 26 26 26 26 26 25 25 24 24 25
6 7 7 8 9 9 10 12 13 14 15 15 13 14 15 15 17 18 19 20 21 21 22 21 21 21 21 21 22 24 24 23 24 24 25 25 25 25 25 25 25 25 24 24 24 24 24 23 24
8 8 8 8 9 10 11 13 13 13 15 15 15 16 17 17 18 18 19 20 21 21 21 21 22 22 22 22 23 23 23 23 23 24 23 24 24 25 24 24 23 23 23 23 22 22 22 22 24
10 10 10 10 10 10 12 13 14 14 15 15 16 17 17 18 18 18 19 20 20 20 21 21 22 22 23 23 23 23 23 23 23 23 22 23 23 23 23 22 22 23 23 22 22 22 21 21 23
10 10 11 11 12 12 13 14 14 14 15 16 17 18 19 20 19 18 19 19 20 20 21 20 22 23 23 23 23 23 23 23 23 22 22 22 22 23 22 22 21 21 21 22 22 22 23 24 24
10 11 11 12 13 13 14 14 15 15 16 17 18 19 20 19 19 19 19 18 20 20 21 22 22 22 22 22 23 23 22 22 21 21 22 22 22 22 22 22 21 21 21 21 22 23 24 25 25
11 12 12 13 14 16 15 15 16 16 17 18 19 20 20 20 20 19 19 20 20 21 22 23 22 22 22 22 22 21 21 21 21 21 22 22 22 22 21 21 21 21 21 21 22 23 23 24 24
11 12 12 13 14 15 15 14 15 17 18 18 19 20 20 20 20 20 21 21 21 22 23 23 23 22 22 21 21 21 20 20 21 22 22 21 21 21 20 20 21 21 21 21 22 22 23 24 24
11 12 12 13 15 15 15 16 15 16 18 18 20 20 20 20 21 21 21 21 21 22 22 22 22 22 21 21 20 20 20 21 21 21 20 20 20 21 20 21 21 21 21 22 22 23 23 23 23

GEFSSGP_500_meanwind_234.txt.gz
Wind_Speed
9 9 8 8 9 8 7 7 7 6 6 5 5 6 5 5 6 7 7 6 6 6 6 6 6 7 7 7 7 7 7 7 7 8 8 9 9 10 11 12 13 13 13 13 13 13 13 13 13
10 9 10 10 10 9 8 8 8 8 7 6 6 6 6 6 6 7 7 7 6 6 6 6 6 7 8 8 8 8 8 8 8 9 10 10 11 12 12 13 13 14 14 14 14 14 14 14 14
10 11 11 11 11 10 10 10 9 10 9 8 8 8 7 7 7 8 8 7 7 7 7 7 7 8 8 9 10 10 10 10 10 10 11 12 12 13 13 14 14 14 15 14 15 15 15 15 15
12 12 13 13 12 12 12 12 11 11 11 10 9 9 8 9 9 9 8 8 8 9 8 8 8 8 9 10 11 11 11 11 11 12 12 13 14 14 14 15 15 15 15 15 15 16 17 17 16
13 13 13 13 13 13 13 13 13 13 12 11 10 10 10 10 10 10 9 9 9 9 9 9 9 10 10 11 11 12 12 12 13 14 14 15 15 15 15 16 16 16 16 17 17 18 18 18 18
13 14 14 14 13 14 14 14 14 14 13 12 12 11 11 12 12 11 10 10 10 10 10 11 11 11 12 12 12 12 13 13 14 15 15 15 16 16 17 17 17 17 18 18 19 19 20 19 19
13 13 13 13 13 14 14 14 14 14 12 12 12 12 12 13 13 12 12 11 11 11 11 12 11 12 13 13 13 13 14 14 15 16 16 16 17 17 18 18 19 20 20 20 20 20 20 20 20
12 13 13 12 13 14 14 14 15 15 13 13 13 12 11 12 13 13 13 12 11 12 12 12 13 13 14 15 14 14 15 15 16 16 17 18 18 19 19 20 21 22 22 21 21 21 21 21 21
13 13 13 12 12 13 14 14 14 15 15 14 14 13 13 13 13 14 13 12 13 13 14 14 14 15 15 15 15 15 16 16 17 17 18 19 20 20 21 21 21 22 22 22 23 22 22 23 23
11 12 12 12 12 12 13 13 13 15 15 15 15 15 15 15 14 14 14 13 14 14 14 15 15 15 15 16 16 16 17 17 17 18 19 20 21 21 21 22 22 22 23 23 24 24 24 24 25
10 11 11 11 11 11 13 13 12 14 15 16 15 15 16 16 15 15 15 15 15 14 14 15 16 16 16 17 17 17 17 18 18 18 20 20 21 22 22 22 23 23 24 24 25 26 26 26 26
9 10 10 10 10 11 12 12 11 12 14 15 15 15 16 15 15 15 15 16 15 14 13 14 15 16 16 17 18 18 18 19 19 19 20 21 22 22 23 24 25 25 25 26 27 27 28 29 28
9 9 9 9 9 11 11 12 12 12 14 15 15 15 15 14 15 16 14 15 15 15 15 15 16 17 17 19 20 20 20 19 19 19 20 22 23 23 23 24 24 25 26 27 28 28 28 29 29
8 8 8 8 9 10 10 11 11 12 13 14 14 13 14 14 15 15 15 15 16 16 16 15 16 17 18 19 20 21 21 21 21 21 21 23 23 24 24 25 25 25 26 27 28 28 28 29 29
6 6 7 8 9 10 11 9 10 11 13 13 13 13 13 14 15 15 15 15 16 17 17 16 17 18 19 20 21 21 22 22 22 23 23 23 24 24 25 26 26 26 27 27 28 28 28 29 29
5 6 6 7 8 9 10 10 11 11 12 13 14 14 13 14 15 16 16 16 17 17 17 18 19 19 20 21 21 22 22 23 24 24 25 24 25 25 25 26 27 27 27 27 27 28 29 29 30
5 4 5 6 6 8 9 10 11 12 13 14 14 14 14 15 16 16 16 16 17 17 18 18 19 19 20 20 21 21 21 23 24 25 26 26 26 26 26 26 27 27 27 27 27 28 28 29 30
4 4 4 5 6 7 8 10 11 12 13 13 14 14 14 16 16 16 17 17 17 16 17 18 19 19 19 20 21 21 22 23 24 24 25 26 26 26 26 27 27 27 27 26 27 28 28 28 28
4 4 4 4 6 7 8 9 10 11 12 13 14 15 14 15 15 15 16 16 16 17 18 19 19 18 18 19 20 21 22 23 23 23 24 25 25 26 26 27 27 26 26 26 27 28 27 27 27
4 5 5 6 8 8 8 9 10 11 13 14 15 14 14 14 15 15 16 17 17 18 18 18 18 18 18 19 20 21 22 22 22 23 23 23 24 24 25 25 25 26 25 25 26 26 25 25 26
5 7 7 8 9 9 10 9 10 12 14 14 13 13 14 15 15 15 15 17 17 17 17 18 18 18 19 20 20 20 20 21 22 22 22 22 22 23 24 24 24 24 24 24 25 25 24 24 24
6 7 8 9 9 10 11 12 11 12 13 13 13 13 14 14 14 15 16 17 17 17 18 19 20 19 20 20 20 19 19 20 21 22 22 22 23 23 23 23 22 22 23 24 23 23 24 24 24
7 8 9 9 10 11 12 14 13 13 12 12 12 12 13 15 16 17 18 18 18 19 20 21 21 20 20 19 19 19 20 21 22 22 22 22 23 23 23 23 22 22 22 22 22 23 23 25 25
8 9 10 10 10 11 13 14 13 13 13 13 13 13 14 15 17 19 20 20 20 20 22 22 22 21 20 20 20 20 20 21 22 22 22 22 23 23 23 23 23 22 22 22 23 24 24 25 25
9 11 11 11 11 12 13 13 14 13 13 14 14 14 16 17 19 19 20 21 21 22 22 22 22 21 21 21 21 20 20 21 22 22 22 22 23 23 23 24 24 24 24 24 24 24 25 24 25
11 12 12 13 14 13 12 13 14 14 14 15 15 15 16 17 18 19 19 20 21 22 22 22 21 21 21 20 20 21 22 22 23 22 22 22 22 23 23 23 24 25 25 25 25 24 25 26 26
12 12 13 14 14 14 13 13 13 14 14 15 16 16 18 18 18 19 19 20 21 21 21 20 20 20 20 20 21 21 21 21 21 21 21 21 21 22 22 22 23 24 24 24 25 26 26 26 26
13 13 14 14 15 15 14 14 13 14 15 15 16 17 17 18 18 19 19 20 20 20 19 18 19 19 19 19 20 21 22 22 22 21 21 21 22 22 22 21 21 22 23 24 25 26 26 26 25
13 14 14 15 15 16 16 15 14 14 15 16 17 17 17 18 18 19 19 20 19 18 17 18 19 20 20 20 20 21 21 21 21 21 21 21 22 22 22 21 21 22 24 24 25 25 25 25 25
14 15 15 15 15 16 16 15 15 16 17 17 18 18 18 18 19 19 20 20 18 18 18 18 19 19 20 20 20 20 20 21 21 20 21 21 21 21 21 22 22 23 24 24 24 24 25 25 25

GEFSSGP_500_meanwind_240.txt.gz
Wind_Speed
8 7 7 6 5 5 7 7 7 6 6 7 7 6 5 5 6 6 6 6 6 6 6 6 6 6 5 5 6 6 6 6 6 6 6 6 7 7 7 7 7 7 8 8 8 8 9 9 10
8 8 8 7 5 7 8 8 8 8 8 8 8 8 7 7 7 7 8 8 7 7 7 7 7 7 7 7 7 7 7 8 8 7 8 8 8 8 8 8 8 8 9 8 9 9 10 10 11
8 8 8 7 7 8 9 10 9 9 10 9 9 9 9 8 9 9 9 9 8 8 8 8 8 8 8 8 8 9 9 9 9 9 9 9 10 10 10 10 9 9 10 10 10 10 11 11 12
9 8 8 8 9 10 10 11 11 11 11 11 11 11 11 11 10 10 10 10 10 10 9 9 9 9 9 9 9 10 10 10 10 10 10 10 11 11 11 11 11 11 11 11 12 12 12 13 13
10 9 9 9 10 11 11 11 12 12 12 12 12 12 12 12 12 11 11 11 10 10 10 11 11 11 10 10 11 11 11 11 11 11 12 12 12 12 12 12 12 12 12 13 13 13 14 14 14
10 10 9 10 12 12 12 12 11 12 12 13 13 13 12 12 13 12 12 12 11 11 12 12 11 12 12 12 12 12 12 12 12 12 13 13 13 13 13 13 14 14 14 15 15 15 16 16 16
10 9 10 11 12 12 12 13 13 13 14 14 14 14 13 13 13 12 13 13 12 12 12 12 12 13 12 12 13 14 14 13 13 14 14 15 15 14 15 15 16 16 16 17 18 18 18 18 17
10 10 10 11 12 12 12 13 13 14 14 14 14 13 14 14 14 13 14 14 13 13 12 12 13 13 13 14 14 14 15 15 14 14 15 16 16 16 17 17 18 18 18 18 19 19 19 19 19
10 10 11 11 12 12 12 13 13 13 13 14 14 14 14 14 15 14 15 14 14 14 14 14 15 15 15 15 15 15 15 16 15 16 16 17 18 18 18 18 19 19 19 19 19 20 20 20 21
8 9 11 12 12 11 12 12 12 12 12 13 13 14 13 14 15 15 15 15 14 15 15 16 16 16 17 17 17 16 16 16 16 17 18 18 19 19 18 19 20 20 20 20 21 21 22 22 23
8 8 10 10 11 11 11 12 12 12 12 13 13 13 14 14 14 14 14 14 15 15 16 17 17 17 18 18 18 17 17 17 17 18 19 18 19 19 19 20 21 21 21 21 22 23 23 24 24
7 8 9 10 10 11 11 11 11 11 12 12 13 13 14 14 14 15 15 15 15 16 16 17 18 18 19 19 19 18 18 18 18 18 19 19 19 20 20 21 21 21 21 22 23 23 24 25 24
7 8 9 10 10 10 10 10 11 11 12 12 13 13 14 15 15 15 16 16 16 15 15 16 17 18 19 19 19 19 19 19 18 18 19 19 20 21 21 22 22 22 23 23 23 23 24 25 25
7 7 8 9 10 10 10 11 11 11 12 12 13 13 14 14 15 15 16 16 15 15 15 16 17 18 19 19 19 19 19 19 20 20 20 21 22 22 23 23 23 23 24 24 24 24 24 25 26
6 6 7 9 10 10 10 10 11 11 12 13 13 13 13 14 15 15 15 15 15 16 16 17 18 18 19 19 19 20 20 20 21 21 21 22 22 23 24 24 24 24 24 25 25 24 25 25 25
6 6 6 9 9 9 9 10 10 10 11 12 13 14 13 14 15 15 15 15 15 16 17 18 17 17 17 18 19 20 20 21 22 22 23 23 23 23 25 25 25 24 24 24 24 24 25 25 25
6 6 8 9 9 9 9 10 11 11 12 13 14 14 14 14 15 16 15 15 16 17 17 17 17 17 18 19 19 21 21 21 22 22 22 23 23 24 24 24 24 24 24 24 24 24 24 25 25
7 7 8 9 10 10 10 11 13 12 13 14 14 14 15 15 16 16 16 16 17 17 17 17 17 18 19 20 20 20 20 20 21 21 21 22 23 22 22 23 23 23 23 24 24 24 24 24 25
8 8 9 10 10 10 11 12 12 13 14 14 14 14 15 15 16 16 16 16 16 17 17 18 18 19 19 19 19 20 19 20 20 20 21 22 22 22 23 23 24 24 24 23 23 23 23 24 25
8 8 8 8 9 10 11 12 13 14 14 14 14 14 14 14 15 15 15 15 15 16 17 17 17 17 19 19 19 19 19 19 19 19 20 21 21 21 23 23 24 24 24 23 23 23 23 23 24
7 7 8 8 9 10 10 12 13 14 13 13 13 14 13 13 14 14 14 14 15 16 17 17 17 18 19 19 19 19 19 19 19 20 20 19 20 21 22 23 23 23 24 24 24 23 24 24 24
6 7 7 8 9 10 10 11 12 13 13 13 13 13 13 13 14 13 13 14 15 16 16 16 17 18 18 17 18 19 18 18 19 20 19 19 20 21 22 22 23 23 23 24 24 24 23 24 24
6 7 7 8 8 10 10 11 12 12 12 13 13 13 13 13 13 13 13 14 15 16 16 16 17 18 17 17 17 18 18 19 19 19 20 20 21 21 23 23 24 24 24 24 23 23 23 24 24
7 7 7 8 9 10 11 10 12 12 12 12 13 13 13 13 13 14 14 14 15 16 16 17 18 18 17 17 17 18 18 18 19 19 20 20 21 22 23 23 23 23 23 23 22 23 24 24 24
6 7 8 8 9 10 12 11 11 13 12 12 12 12 12 13 14 14 15 16 16 17 17 17 17 18 17 17 17 17 18 19 19 19 20 20 21 22 23 22 21 21 22 23 23 23 23 23 23
7 7 8 9 10 11 13 13 12 13 12 12 12 12 13 14 14 15 16 17 17 17 16 16 17 18 17 17 17 17 18 18 18 19 20 20 20 21 21 21 20 21 22 22 23 23 23 24 24
8 8 10 10 11 11 12 13 13 13 13 13 12 13 13 14 15 15 16 17 17 17 16 16 17 17 17 17 17 17 18 19 19 20 20 20 20 20 20 20 21 21 21 22 23 23 23 24 24
10 10 11 10 11 12 13 14 14 13 13 13 13 14 15 15 16 16 17 18 17 16 17 17 17 17 18 18 19 19 19 19 19 20 19 19 19 19 20 20 21 21 22 22 23 23 23 23 23
11 11 11 12 12 12 13 14 14 14 14 14 14 15 15 16 17 18 18 18 17 17 17 18 17 18 19 19 20 20 19 19 20 19 19 19 19 19 20 20 20 20 21 22 22 22 22 22 22
12 12 12 12 13 13 13 14 13 14 14 14 14 15 15 16 17 18 18 17 17 17 17 17 17 18 19 19 19 19 19 19 19 19 19 19 20 20 20 20 20 21 21 22 22 22 21 21 21

GEFSSGP_500_meanwind_246.txt.gz
Wind_Speed
4 4 3 3 2 1 3 4 7 11 12 12 10 11 11 10 12 12 12 11 11 12 12 12 12 12 12 11 11 11 11 11 11 11 11 11 12 12 12 12 12 12 12 12 11 11 11 11 10
5 5 4 4 2 3 5 8 10 13 14 13 12 12 12 12 12 13 13 13 13 13 13 13 13 13 12 13 13 12 11 12 12 13 13 13 13 13 13 13 13 13 14 13 13 12 12 11 11
5 5 5 3 4 6 8 10 11 13 13 14 14 14 13 13 13 14 14 14 14 14 14 14 13 13 12 12 12 13 13 13 13 14 14 14 14 14 14 14 15 14 14 14 13 13 13 13 13
7 7 5 4 6 7 9 11 12 13 14 15 15 16 15 15 15 14 14 15 15 14 14 14 14 14 13 13 13 13 14 15 15 15 15 15 15 15 15 15 16 15 15 15 15 14 14 14 13
7 6 4 4 5 8 11 13 14 14 14 15 16 16 16 15 15 15 15 15 15 15 15 15 15 15 14 15 15 15 15 16 16 16 16 16 16 17 17 16 16 16 16 16 15 15 15 15 15
6 5 5 5 5 10 13 14 14 15 15 15 16 17 16 14 15 16 16 16 16 16 16 15 15 15 16 16 16 16 16 17 17 17 17 16 16 17 17 17 17 18 18 17 16 16 16 16 16
7 7 6 6 8 11 13 15 15 16 14 15 16 17 17 15 15 16 17 17 17 17 17 16 16 16 16 17 18 17 17 17 17 18 17 17 18 18 18 18 18 18 19 19 19 18 17 17 17
7 7 7 8 9 11 14 16 15 16 14 15 15 16 16 15 16 16 17 17 17 17 18 17 17 18 18 18 18 19 19 19 18 18 19 19 19 19 18 18 19 19 20 20 20 20 19 19 18
6 6 6 9 12 13 14 15 16 16 15 14 15 16 16 15 16 16 17 17 17 17 18 18 18 19 19 19 19 19 19 19 19 19 19 20 19 19 19 19 19 19 20 20 20 20 20 20 20
7 7 8 11 13 14 14 14 14 14 14 14 15 16 16 14 15 16 17 18 18 18 18 18 18 19 19 19 20 21 20 20 20 20 20 20 20 20 19 19 20 20 20 20 20 20 21 22 22
8 8 10 12 12 13 13 13 13 14 13 13 15 16 16 15 16 17 17 18 18 18 19 18 18 19 20 20 21 20 20 21 21 21 21 20 19 19 19 19 19 19 20 20 20 21 21 22 22
9 9 11 12 12 12 12 13 12 13 12 13 15 16 15 17 17 17 17 17 18 18 19 20 19 20 20 21 22 21 20 21 21 21 21 20 20 19 19 20 20 20 20 20 21 21 21 22 22
9 9 11 11 12 12 12 12 12 13 13 14 17 18 16 16 17 17 18 17 18 18 19 19 19 19 20 20 20 20 21 21 21 20 20 20 21 20 19 19 20 20 20 20 21 21 21 22 21
7 8 11 11 11 13 13 13 13 13 13 14 15 16 15 16 17 17 17 17 18 19 18 19 19 19 20 21 20 20 21 22 21 21 21 21 21 21 20 19 19 20 21 21 22 23 23 23 23
6 8 9 11 12 13 13 13 15 15 14 15 16 16 16 17 17 17 17 17 18 19 19 19 20 21 21 21 21 22 22 22 21 21 21 22 22 22 21 20 20 21 21 22 23 24 24 24 24
5 7 9 12 14 14 14 14 16 15 15 16 16 16 16 16 16 16 16 17 18 19 20 20 21 22 23 22 22 22 23 23 23 22 22 22 23 22 21 20 20 21 22 22 23 24 24 24 24
5 8 10 13 14 15 15 15 15 16 16 17 17 17 15 15 15 15 16 16 17 18 19 19 21 22 22 22 22 23 23 23 23 22 22 21 21 21 21 21 21 21 22 23 23 23 23 24 24
9 11 12 11 13 16 15 14 15 16 16 16 17 17 16 16 16 16 16 17 17 17 18 19 20 21 21 22 22 22 21 21 21 21 21 21 20 21 21 21 21 22 23 23 23 23 22 23 23
9 10 12 10 12 15 14 14 15 15 17 16 17 18 17 17 17 16 16 16 16 17 18 18 20 21 20 20 20 20 19 19 20 21 20 21 21 21 21 21 22 22 23 22 23 23 23 23 23
8 8 9 10 11 13 14 14 14 14 15 17 18 17 17 17 17 17 17 16 17 17 18 19 20 19 19 19 19 19 19 20 20 19 20 21 21 22 22 22 22 22 22 23 23 23 24 23 23
8 8 9 10 11 12 13 14 15 14 15 16 16 16 17 17 17 17 17 17 17 18 19 19 19 18 18 19 20 19 18 19 20 19 19 20 21 22 22 22 21 21 22 22 23 23 23 23 23
9 9 9 10 12 11 12 14 15 15 15 15 16 16 16 16 16 16 16 16 17 18 19 20 18 18 19 19 19 18 19 19 19 18 19 20 20 20 20 20 20 21 21 22 23 23 24 24 24
9 9 10 11 12 12 12 12 12 14 16 16 16 16 17 16 16 16 16 16 17 18 19 18 17 18 18 18 18 19 19 20 19 18 19 19 18 19 19 20 20 21 22 22 23 22 22 22 23
10 9 10 10 11 13 11 11 11 14 16 16 16 16 17 17 17 16 16 16 17 17 17 17 17 18 18 18 18 19 19 19 18 18 19 18 19 19 19 19 20 21 22 22 22 22 22 22 23
9 9 10 10 9 12 11 11 13 15 15 14 14 15 16 17 16 15 15 16 16 17 17 17 17 18 19 18 18 18 19 19 19 18 19 19 19 19 19 19 20 21 21 21 22 22 23 22 23
9 9 11 12 11 12 13 13 16 14 14 15 16 16 16 16 15 16 16 16 17 17 17 16 16 18 18 18 18 18 19 20 19 19 19 19 19 19 19 19 20 21 21 22 21 22 22 22 22
10 10 10 13 12 12 12 14 17 16 16 16 16 17 17 17 17 16 16 17 17 17 17 17 17 17 18 19 20 19 19 19 18 19 18 18 18 18 18 19 20 20 21 21 21 22 22 22 22
12 12 12 12 12 12 11 12 15 16 17 17 18 17 17 17 17 17 17 17 17 18 18 18 18 19 20 19 20 19 19 19 19 18 18 18 18 18 19 19 20 20 21 21 21 22 22 22 22
12 12 12 13 12 12 12 13 17 16 17 18 18 18 18 17 17 17 17 17 17 18 18 18 18 19 20 20 19 19 20 20 19 19 19 19 19 19 19 19 19 20 20 20 21 21 22 22 23
12 12 13 14 13 12 13 16 17 17 17 18 18 18 18 17 17 17 17 17 18 18 18 18 18 19 19 20 19 20 20 20 20 20 19 19 19 19 19 19 19 19 19 20 20 21 21 22 22